GFSNGP_500_rhum_000.txt.gz
RH
25 27 26 22 20 20 18 20 20 21 20 18 16 18 22 32 36 38 40 37 35 36 38 43 43 45 42 69 82 82 80 75 77 75 65 53 42 45 50 46 31 25 13 10
26 26 25 23 21 22 21 22 22 21 22 21 20 18 20 22 27 32 40 42 40 39 42 45 45 45 65 81 88 86 85 84 79 58 49 44 48 52 50 32 25 14 11 10
28 28 25 20 20 20 20 21 22 21 22 22 22 22 21 22 23 32 44 47 45 42 45 48 54 57 81 90 89 92 92 74 52 47 48 48 50 54 37 27 15 12 10 12
26 26 22 18 19 18 19 20 23 22 23 22 22 23 22 21 22 38 48 50 47 47 53 61 57 74 84 87 94 93 71 57 55 54 56 57 59 42 29 16 13 12 12 16
34 30 24 24 21 18 18 22 24 24 24 22 24 23 24 23 25 43 50 50 51 55 58 51 68 85 92 96 88 74 68 62 59 59 63 60 41 29 16 13 14 11 16 28
31 31 25 25 27 28 27 20 26 24 25 25 24 23 25 28 29 45 50 55 58 44 42 67 80 84 89 87 81 78 72 72 70 70 62 40 29 16 14 15 14 15 22 41
22 19 14 24 27 29 26 26 22 24 24 24 25 26 31 31 36 52 54 50 39 37 59 85 93 93 95 94 88 85 84 80 74 66 39 28 16 14 15 17 14 24 29 38
35 30 24 30 29 29 28 27 27 27 27 28 28 38 34 37 53 50 45 44 49 70 94 100 97 96 97 89 88 87 82 80 64 37 27 16 14 14 18 17 23 35 36 34
37 40 44 40 42 44 44 41 38 35 35 38 53 43 44 45 43 44 51 66 83 100 100 100 100 99 93 95 91 84 82 54 30 26 15 14 15 18 21 23 35 40 40 44
24 33 38 37 32 36 36 37 39 44 53 51 47 50 46 39 44 66 78 90 100 100 100 100 100 100 98 93 87 82 42 25 22 14 14 15 18 25 27 33 37 48 64 64
16 22 25 35 44 46 43 44 50 54 51 54 54 46 44 67 78 96 100 100 100 100 100 100 100 100 95 89 73 30 23 20 14 16 17 18 26 34 37 45 63 71 66 62
19 28 27 32 40 47 50 61 57 57 62 62 47 48 75 79 98 100 100 100 100 100 100 100 100 98 91 61 26 20 18 13 17 20 18 23 34 42 48 47 46 64 68 64
39 50 56 65 67 74 77 74 74 71 50 41 46 72 97 100 100 100 100 100 100 100 100 100 100 89 57 28 17 16 14 16 23 22 23 31 40 51 58 55 49 63 68 64
82 79 79 91 79 88 85 83 59 52 77 88 89 98 100 100 100 100 100 100 100 100 100 98 87 60 30 16 17 15 16 19 25 25 35 42 49 58 65 56 61 77 72 72
97 92 79 73 78 75 70 63 80 85 82 94 100 100 100 100 100 100 100 100 100 100 96 87 59 30 17 18 15 17 18 24 27 33 44 49 56 64 68 73 92 90 88 79
78 72 56 57 75 84 90 93 93 92 100 100 100 100 100 100 100 100 100 100 100 98 84 56 24 17 21 17 17 20 23 29 28 46 52 55 62 77 84 94 93 93 93 88
62 88 92 91 93 99 93 87 91 99 100 100 98 100 100 100 100 100 100 100 100 85 58 23 19 23 19 17 22 23 28 34 36 55 58 59 63 78 94 96 99 99 99 94
91 95 95 89 88 93 94 91 96 100 100 100 100 100 100 100 100 100 100 96 70 46 24 22 25 22 20 21 26 27 40 39 47 61 66 71 67 82 96 100 100 98 93 96
92 93 94 95 98 99 100 100 100 96 88 97 100 100 100 100 100 100 88 56 36 24 29 28 25 23 23 29 31 35 51 51 58 72 78 84 82 83 95 100 100 99 93 98
95 97 95 96 93 90 93 96 99 100 100 100 100 100 100 100 98 79 52 34 36 32 29 26 23 24 26 34 35 41 59 60 71 82 93 94 96 98 99 100 100 100 100 100
81 88 95 97 100 100 100 100 100 100 100 100 100 100 100 85 56 36 32 36 36 30 29 26 25 29 34 39 36 38 64 65 83 92 95 100 100 100 98 100 100 100 100 100
100 100 100 100 100 100 100 100 100 100 100 100 96 71 44 32 31 35 35 34 32 32 28 29 34 38 39 42 36 36 59 68 83 100 100 100 100 100 100 100 100 100 100 100
95 98 100 100 100 100 100 100 100 93 74 45 29 26 27 31 32 31 28 33 32 30 32 34 42 40 40 41 34 32 50 65 78 100 100 100 100 100 100 100 100 100 85 78
100 100 100 100 99 98 88 63 35 23 18 16 16 19 25 32 32 42 42 37 35 29 29 42 44 39 38 37 31 30 44 62 73 99 100 100 100 100 100 97 97 97 67 49
100 100 97 79 64 46 25 18 16 15 16 18 22 31 41 47 47 37 32 35 35 28 34 47 44 42 38 36 31 29 41 61 75 98 100 100 100 100 98 94 92 94 77 62
91 81 66 52 32 22 19 19 21 24 23 22 26 33 42 46 46 44 42 40 36 30 38 46 44 43 42 37 32 32 45 63 80 92 99 100 100 100 99 100 95 80 77 72
65 58 46 30 26 25 25 27 30 31 30 30 30 35 36 35 33 36 43 42 39 42 46 46 45 45 45 43 37 36 48 65 80 92 99 100 100 100 99 97 93 90 79 64

GFSNGP_500_rhum_003.txt.gz
RH
27 26 22 19 20 21 20 20 19 19 20 22 19 19 20 20 20 21 22 22 23 26 38 47 49 50 52 54 55 51 57 68 76 85 90 76 70 62 49 46 46 39 19 9
25 24 22 21 24 22 23 21 20 20 19 21 21 21 21 21 21 22 23 23 23 24 33 49 52 54 57 58 51 51 75 84 91 91 84 77 58 50 49 49 33 18 8 10
22 25 22 19 22 23 22 21 20 19 19 19 20 22 22 23 23 24 25 26 27 27 32 46 54 57 60 52 41 76 96 100 100 92 77 57 51 53 50 30 15 10 11 12
23 23 17 18 22 24 23 22 21 20 21 23 24 22 23 25 25 25 26 29 32 34 35 54 59 56 46 41 79 100 100 100 97 81 65 55 56 48 33 13 10 13 12 14
22 22 20 21 24 27 27 26 31 31 29 27 25 24 26 24 25 27 30 35 44 39 47 58 53 47 52 88 100 100 100 93 83 71 63 60 52 33 10 10 14 14 15 15
17 17 14 17 21 24 25 22 30 27 26 26 26 24 27 27 30 34 37 53 43 49 55 52 58 72 95 100 100 100 100 90 78 68 62 56 36 11 10 14 17 14 18 19
15 16 14 24 27 28 30 28 26 30 33 38 45 45 42 41 42 51 56 47 57 53 58 75 92 100 100 100 98 100 92 80 75 67 62 38 11 10 14 19 17 19 22 26
15 14 18 24 24 29 32 37 34 36 44 46 45 43 40 43 60 53 56 55 46 69 80 99 100 100 100 100 100 95 83 79 69 65 40 13 11 14 18 20 20 27 30 37
12 12 14 14 15 18 21 27 33 35 39 38 40 44 50 54 53 60 57 44 62 81 90 97 100 100 100 100 98 98 91 72 66 48 15 11 15 16 20 20 28 34 44 59
10 19 18 14 14 15 18 25 33 37 40 42 43 52 54 62 65 54 45 64 84 93 95 100 100 99 97 92 94 96 75 67 50 22 12 14 16 19 22 27 39 43 45 45
8 11 10 15 22 27 31 35 39 41 46 57 70 72 74 55 51 77 90 96 100 100 100 100 100 100 98 99 100 82 72 56 29 13 14 17 17 21 29 38 48 53 49 49
11 17 18 25 32 38 49 65 67 69 76 80 82 79 60 79 94 99 98 92 99 100 100 100 100 100 100 100 95 80 59 36 16 15 17 18 19 26 36 42 47 55 51 68
25 32 41 47 51 54 61 71 73 72 74 73 73 79 92 96 94 100 100 100 100 100 100 100 100 100 100 100 88 67 36 18 17 15 20 19 22 34 38 44 50 54 73 91
52 49 50 53 57 64 71 72 65 59 73 82 82 88 93 90 92 98 100 100 100 100 100 100 100 100 100 86 73 37 21 19 17 18 22 21 28 40 44 49 57 69 85 88
59 57 59 63 66 68 65 63 81 84 82 87 88 95 97 96 98 100 100 100 100 100 100 100 100 97 87 76 42 25 21 19 19 24 24 27 38 48 52 56 67 84 89 87
51 57 56 56 71 79 78 78 86 92 93 99 100 98 100 100 100 100 100 100 100 100 100 100 97 90 79 49 29 24 21 22 24 30 30 35 46 56 64 66 73 85 86 86
65 63 78 82 82 88 96 100 100 100 100 100 100 100 100 100 100 100 100 100 100 100 100 100 98 81 44 29 24 23 20 24 31 35 35 44 50 66 76 76 75 82 90 93
89 90 91 91 91 94 96 100 100 100 100 100 100 94 88 94 100 100 100 100 98 100 100 96 64 32 28 28 28 23 23 30 35 38 41 56 62 78 89 94 96 98 99 98
92 92 94 98 100 100 100 100 100 99 94 91 98 100 100 100 100 100 100 100 100 91 54 32 29 31 34 33 26 25 28 37 39 41 42 62 81 90 96 100 100 100 100 100
75 69 66 71 77 80 86 90 94 96 100 100 100 100 100 100 100 100 96 68 26 20 19 30 34 38 36 31 28 27 32 42 40 41 39 62 78 98 100 98 98 100 100 100
72 77 83 84 92 98 95 94 92 98 100 100 100 100 100 98 73 36 16 14 19 25 32 40 44 41 35 36 30 33 46 46 42 41 35 55 74 87 100 100 100 100 100 100
54 40 48 88 100 100 95 97 100 100 100 100 97 68 31 19 17 16 16 16 16 22 30 42 48 42 40 41 34 44 49 46 42 38 34 46 66 81 100 100 100 100 99 96
8 47 99 100 100 100 100 100 100 98 84 64 38 26 21 18 16 17 18 20 25 32 35 38 41 43 43 42 37 47 49 46 43 37 33 44 64 82 100 100 100 100 100 100
60 90 92 87 73 93 100 91 72 64 50 38 25 24 25 22 17 19 21 27 31 35 37 37 34 31 43 42 41 47 49 48 46 40 35 45 67 88 100 100 100 100 100 100
14 22 42 66 92 100 100 80 79 65 39 31 31 34 32 25 21 21 28 28 27 27 27 31 35 36 33 41 47 48 47 49 50 46 40 50 77 91 100 100 100 100 100 100
23 37 56 85 100 100 79 69 76 62 44 41 41 27 19 19 24 27 26 29 35 41 42 43 47 50 49 46 50 53 50 51 53 54 47 53 79 99 100 100 100 100 100 99
59 80 93 97 96 94 87 77 63 55 50 35 21 18 19 22 24 26 29 29 27 24 22 22 24 29 34 39 44 45 45 50 56 57 56 60 78 94 100 100 100 100 100 94

GFSNGP_500_rhum_009.txt.gz
RH
15 18 27 24 27 22 14 17 17 19 21 22 22 20 20 19 20 21 21 22 24 28 32 32 30 30 34 36 41 45 62 62 60 58 66 88 100 100 95 92 81 65 50 46
18 28 26 23 24 23 18 16 17 20 22 26 24 23 24 24 24 27 32 39 41 40 36 34 36 39 44 47 55 69 63 63 59 70 100 100 100 100 95 90 83 59 64 52
18 22 22 18 22 25 26 26 27 26 28 23 23 23 26 27 32 37 40 40 38 40 51 60 60 57 55 68 70 65 62 59 72 97 100 100 96 100 98 82 84 76 80 49
20 24 21 22 23 24 24 26 29 26 28 27 25 30 32 34 32 36 38 47 58 63 61 60 59 63 75 67 68 66 66 86 100 100 100 93 98 95 90 93 89 99 81 57
18 19 20 20 18 23 25 29 22 25 27 27 26 27 32 23 31 42 45 41 41 47 55 58 69 67 72 71 64 66 91 100 100 100 100 100 100 96 100 100 100 100 75 53
21 19 16 16 18 18 17 20 9 17 18 19 22 24 31 23 26 24 27 34 43 48 56 67 74 77 67 68 97 100 100 100 100 100 100 100 100 100 100 100 99 96 68 32
7 6 6 6 7 8 10 13 12 12 13 12 14 19 14 15 21 29 36 40 50 68 82 85 77 75 83 98 91 78 96 92 99 100 100 100 100 100 100 100 100 95 60 13
10 10 9 10 9 9 9 8 8 8 10 7 8 10 14 20 30 49 69 68 70 69 65 71 80 90 92 76 78 100 100 100 100 100 100 100 100 100 100 100 78 53 19 10
11 11 10 8 7 6 6 6 7 6 8 9 12 18 25 36 55 68 69 64 57 55 77 80 83 90 93 100 100 100 100 100 100 100 100 100 100 100 98 88 68 29 10 14
9 8 7 5 6 5 5 6 8 10 14 20 30 41 49 51 52 56 51 53 67 76 79 84 88 90 99 90 100 100 100 100 100 100 100 100 100 100 88 70 29 12 14 20
7 7 6 6 6 6 10 12 17 29 41 45 49 44 41 43 44 50 65 73 72 78 84 86 89 86 78 88 97 100 100 100 100 100 100 100 100 88 42 18 15 16 21 24
6 6 8 9 10 14 24 41 45 40 33 28 28 34 44 48 65 68 66 67 76 80 85 92 91 96 100 100 100 100 100 100 100 100 100 88 40 16 16 18 18 22 29 28
7 10 15 19 25 47 47 42 33 25 25 48 55 54 58 67 69 69 72 77 80 84 90 100 97 100 100 100 100 100 100 100 100 97 63 20 12 15 19 21 21 30 35 33
18 29 38 51 46 42 38 30 25 32 61 65 65 68 69 70 70 71 70 71 71 74 90 100 100 100 100 100 100 100 100 98 71 23 13 12 16 20 26 26 27 33 39 42
44 47 47 45 42 36 31 32 47 70 73 71 68 69 66 67 67 66 65 59 70 86 97 94 95 100 100 100 100 94 61 29 19 16 13 13 20 28 37 35 34 43 44 45
53 49 44 43 48 49 54 68 73 70 69 71 70 70 68 64 56 43 34 54 79 85 76 60 94 100 100 85 52 28 19 20 18 13 12 19 28 33 36 43 40 46 48 57
56 59 65 74 76 76 75 76 80 81 78 76 75 62 43 23 9 3 18 49 77 98 100 94 88 85 72 37 26 26 24 18 14 12 17 25 28 32 34 45 46 49 51 50
73 80 82 83 81 83 86 86 84 82 78 60 32 14 4 3 6 11 37 37 31 55 55 73 63 48 41 32 32 34 25 19 15 19 23 27 31 39 37 42 47 50 54 48
91 94 91 89 93 93 89 86 78 53 30 12 4 4 6 7 9 11 26 43 51 54 44 44 50 50 47 46 44 33 24 16 19 26 31 35 36 39 42 42 50 50 52 48
97 100 100 100 96 88 70 39 20 7 6 7 7 8 10 10 14 33 50 35 23 24 33 55 80 82 65 43 28 21 16 18 27 31 32 35 42 44 45 47 52 51 52 50
100 100 96 85 57 26 9 6 7 7 7 8 8 10 11 15 38 67 100 100 87 88 88 86 69 46 35 28 21 17 18 22 26 29 33 36 41 50 51 52 56 55 53 54
98 83 45 16 7 6 7 8 8 8 9 9 10 11 14 22 35 62 91 96 92 84 72 57 46 42 32 24 20 20 24 24 23 22 24 27 33 40 52 56 61 61 58 61
43 13 7 6 7 8 9 10 10 10 10 11 14 19 30 51 74 83 81 81 72 63 57 52 45 33 24 18 20 22 21 19 18 18 20 25 30 34 45 54 60 66 66 69
8 8 8 9 10 10 10 10 11 11 13 19 31 47 65 73 75 74 73 69 63 53 44 33 24 19 18 19 19 15 12 13 15 18 21 29 40 45 73 62 60 60 68 77
9 10 10 10 11 11 12 12 13 17 34 54 68 74 70 65 61 60 62 58 49 36 23 18 17 18 17 12 11 12 13 14 17 20 25 29 74 90 77 77 55 56 67 82
11 11 12 12 13 14 16 20 41 61 75 82 79 64 51 49 58 59 51 36 25 18 16 18 17 12 11 11 11 11 12 13 15 17 25 36 86 100 100 100 74 57 62 80
13 14 14 16 20 31 53 69 78 85 87 84 68 60 64 63 52 38 27 20 17 19 19 12 11 11 10 11 12 14 17 18 18 20 28 37 60 93 100 100 83 54 59 73

GFSNGP_500_rhum_012.txt.gz
RH
15 49 60 100 61 30 27 24 19 18 19 26 56 40 19 20 17 23 28 28 31 37 36 32 36 38 51 59 62 63 62 72 83 86 76 67 61 87 89 99 97 98 94 88
10 15 15 18 19 21 25 25 20 16 18 34 18 18 21 23 28 26 30 38 42 44 44 46 51 49 54 53 52 60 76 79 73 72 62 85 100 95 90 96 97 100 100 100
12 13 16 19 26 26 24 28 27 26 26 31 28 20 18 28 30 24 30 31 35 44 51 53 40 35 44 50 51 70 74 77 71 76 96 97 98 100 99 100 100 100 100 100
16 14 16 23 22 27 25 25 28 29 31 27 23 24 32 23 17 24 23 31 30 27 26 26 35 39 41 61 70 79 83 78 90 90 92 100 100 100 100 99 95 100 100 100
18 15 22 20 22 26 28 31 25 24 29 28 19 22 26 13 18 20 18 15 14 17 24 34 48 61 73 86 90 76 78 82 85 97 88 81 97 100 100 100 100 100 100 98
21 23 23 22 21 23 21 23 10 19 17 15 13 16 16 15 13 12 13 16 20 30 53 68 77 73 66 66 78 85 80 89 100 95 100 100 100 100 100 100 100 100 99 94
22 18 14 9 9 9 10 12 11 10 9 9 9 10 10 8 8 14 20 24 38 56 64 63 59 57 73 79 86 91 100 100 94 96 90 100 100 100 100 100 100 100 97 83
11 11 10 10 10 10 10 9 8 6 6 6 6 8 10 14 18 23 47 50 55 51 55 57 66 78 80 86 92 97 96 96 92 92 100 100 100 100 100 100 100 92 63 27
12 11 9 8 8 7 6 5 5 6 6 7 9 12 16 28 42 45 46 40 45 49 61 76 80 83 88 85 88 98 100 100 100 100 100 100 100 100 100 100 97 81 42 17
11 11 10 8 6 6 5 6 5 7 10 11 19 40 45 42 29 27 41 48 51 68 74 74 78 78 75 75 78 100 100 100 100 100 100 100 100 100 96 77 39 13 17 19
11 13 11 10 6 5 6 6 8 12 16 36 47 43 32 24 35 55 59 64 64 58 57 60 63 64 65 69 80 100 100 100 100 100 100 100 100 97 73 24 13 16 24 28
14 11 14 10 7 6 6 8 17 32 42 43 38 30 26 38 58 64 65 65 61 60 61 62 58 48 30 50 77 100 100 100 100 100 100 99 77 35 16 14 19 26 29 35
16 16 13 10 8 8 13 24 38 43 43 37 32 33 43 66 70 68 65 63 65 66 58 41 18 8 13 68 90 92 89 100 100 98 67 32 25 21 16 13 16 23 31 37
20 19 13 11 11 17 38 46 47 43 40 45 50 64 73 72 70 68 70 70 62 44 17 6 4 5 6 38 65 100 98 95 70 52 40 34 31 24 19 15 14 22 27 30
25 22 19 21 32 50 54 52 55 64 69 71 73 70 67 70 74 77 67 44 18 6 4 4 6 7 10 17 76 49 58 57 48 48 45 44 37 28 20 17 20 28 33 40
29 23 37 60 63 60 59 62 71 72 71 69 69 71 78 78 73 51 22 6 5 5 5 5 7 8 16 36 49 52 48 63 79 80 66 42 25 20 17 23 32 37 39 43
32 44 64 64 63 62 73 80 80 79 78 81 85 84 80 54 22 6 5 5 5 6 7 8 13 30 43 53 41 32 60 86 80 51 36 30 24 20 20 26 30 37 43 46
66 67 64 68 71 83 93 96 96 97 95 92 85 61 26 7 5 6 6 6 7 8 9 17 39 64 59 55 79 94 93 68 50 41 36 31 24 24 29 31 34 36 42 47
70 73 83 90 97 100 100 100 100 98 91 66 33 10 6 6 7 7 8 8 9 11 17 41 77 96 100 97 90 77 64 54 46 36 26 23 24 29 34 34 34 38 47 52
90 99 100 100 100 100 100 100 99 83 45 19 8 6 8 8 8 9 10 10 13 21 34 62 76 81 82 77 68 61 50 40 31 23 21 23 25 27 29 26 24 26 37 55
100 100 100 100 100 100 100 95 61 25 10 8 8 9 9 10 10 11 13 18 33 50 74 75 60 66 69 64 55 45 34 24 18 18 20 21 21 20 20 21 23 27 35 47
100 100 100 100 100 100 76 42 15 9 8 8 9 10 11 12 13 19 29 42 58 62 54 49 51 54 50 42 33 23 17 17 18 17 15 13 13 15 17 21 27 32 49 54
100 100 100 100 94 56 20 10 9 9 10 10 11 13 14 16 24 30 44 67 73 64 59 58 54 43 34 24 18 18 19 15 11 11 11 12 13 17 24 26 32 47 71 97
100 100 89 45 14 10 9 10 10 11 12 13 14 16 22 30 48 72 81 77 69 64 55 46 38 25 17 18 21 14 10 10 10 10 12 13 13 14 18 25 32 55 100 100
41 13 10 9 9 10 11 12 12 14 16 19 29 37 53 75 81 77 64 55 53 50 39 25 18 17 22 18 10 10 10 9 9 10 11 13 18 18 18 24 34 70 100 100
9 10 10 11 12 12 14 16 19 22 28 52 64 70 74 67 61 59 59 59 41 25 21 16 17 23 16 11 11 12 10 10 11 12 12 14 17 23 25 29 58 100 100 100
11 11 12 14 16 22 28 28 36 67 83 87 86 79 71 63 63 61 42 27 23 20 16 19 24 18 13 13 14 12 11 12 12 13 16 18 22 28 33 40 58 76 92 98

GFSNGP_500_rhum_015.txt.gz
RH
10 11 14 17 40 54 30 25 22 27 20 22 21 24 18 13 12 14 24 29 25 22 35 38 42 63 75 92 85 75 66 44 43 46 62 80 70 70 76 78 64 64 76 100
11 13 13 13 49 26 30 26 24 25 22 19 18 17 17 16 18 25 22 31 35 33 29 35 72 87 83 91 61 55 47 62 64 58 67 73 84 89 88 73 96 100 100 100
10 11 11 11 12 19 26 36 42 32 31 33 25 18 15 18 27 29 29 30 34 39 38 27 20 38 34 37 50 69 77 70 64 74 79 88 96 76 99 100 97 100 100 100
20 13 12 13 14 21 28 32 28 25 22 23 24 22 25 26 20 19 19 18 17 17 20 16 20 30 43 57 66 63 59 62 76 82 87 85 93 100 100 100 100 98 100 100
39 21 21 14 16 24 30 29 28 28 25 28 32 26 22 22 22 18 13 10 8 8 13 32 65 78 73 67 60 60 66 72 72 71 83 100 100 100 100 100 100 100 100 100
26 25 22 15 19 21 25 23 22 26 27 24 22 23 20 17 14 10 9 10 11 23 43 46 44 40 47 48 52 67 70 67 69 81 90 92 100 100 99 98 86 100 100 100
21 18 17 18 23 24 20 14 11 12 12 12 10 9 8 8 6 6 10 27 43 45 42 38 38 44 53 67 71 79 74 74 78 94 92 100 100 100 100 100 100 100 100 97
12 11 10 10 10 11 12 10 10 8 7 6 6 6 6 7 10 17 38 45 38 31 38 55 59 71 83 85 80 68 65 68 74 79 97 100 100 100 100 100 100 100 95 57
12 13 11 9 9 8 8 7 7 6 5 5 5 6 8 14 31 47 45 37 27 37 62 70 76 74 69 66 69 65 59 45 42 70 81 100 100 100 100 100 98 76 34 18
14 13 11 9 8 8 8 10 9 7 6 6 7 11 21 42 48 42 39 30 30 51 71 73 73 70 68 66 57 32 10 6 6 14 51 99 100 100 100 78 53 37 29 22
15 14 10 10 9 9 9 10 9 8 8 9 16 29 41 44 44 38 35 38 52 68 69 64 62 63 62 37 11 5 4 4 5 9 44 98 100 80 48 47 50 45 34 26
12 14 14 14 15 15 15 14 12 11 12 20 35 44 48 46 45 52 58 74 74 66 63 61 64 54 21 6 5 4 4 5 6 9 23 82 60 58 69 77 69 42 23 20
16 14 16 17 17 18 18 17 16 17 28 44 53 54 55 62 69 75 78 74 68 66 69 66 40 11 6 4 4 5 6 7 10 20 44 52 38 50 67 78 62 27 22 22
19 17 22 29 38 35 30 26 22 29 50 59 58 58 67 76 78 78 77 75 75 73 57 23 7 6 5 4 5 6 8 11 23 45 51 38 43 76 88 61 45 42 31 24
34 46 47 50 48 46 39 29 40 59 63 63 63 74 82 86 87 85 86 82 71 52 20 6 6 5 6 6 7 8 11 22 53 57 54 82 91 84 63 51 40 37 28 29
73 74 67 62 58 44 34 46 62 65 65 70 80 90 95 93 90 88 82 67 40 13 7 6 6 7 8 8 9 12 20 41 72 84 85 84 78 67 57 47 38 30 26 30
86 76 65 54 41 42 60 70 67 68 78 90 98 98 99 95 89 87 69 35 12 6 7 8 8 9 10 11 13 20 38 64 78 80 71 66 62 54 45 34 28 26 28 34
89 74 48 52 73 76 73 72 81 96 100 100 100 100 100 96 92 59 19 8 7 8 9 9 10 11 13 17 29 55 68 57 50 52 52 50 43 34 26 22 23 23 26 29
67 64 77 75 73 76 87 98 100 100 100 100 100 100 100 95 52 13 8 8 9 10 10 11 14 21 30 53 71 65 54 56 56 49 40 32 24 19 20 20 20 21 22 23
95 91 84 85 90 93 100 100 100 100 100 100 100 100 93 40 10 8 9 10 10 12 13 15 21 32 62 76 70 62 55 45 39 33 23 17 19 20 16 12 11 13 21 90
97 95 96 95 98 100 100 100 100 100 100 100 96 62 17 9 9 10 11 12 14 18 26 39 66 74 68 54 48 45 41 28 19 16 19 20 13 9 10 10 11 12 17 28
100 93 98 100 100 100 100 100 100 100 88 49 17 9 10 10 12 13 15 18 24 39 57 67 57 52 50 48 42 25 19 17 15 21 17 10 10 9 9 9 12 14 16 46
98 100 100 100 100 100 100 100 76 36 14 10 10 11 11 14 17 20 25 36 53 64 57 49 50 52 43 29 21 19 16 16 22 17 11 11 11 10 10 12 14 19 21 35
100 100 100 100 100 100 87 53 22 11 10 11 12 13 18 25 33 41 51 61 66 67 54 45 45 43 27 21 19 14 16 23 17 12 13 13 12 11 11 13 14 18 24 26
100 100 100 100 86 50 19 10 10 12 13 16 20 24 37 42 46 41 49 68 74 60 46 45 37 24 23 19 14 20 24 18 15 16 16 14 12 12 13 15 18 21 29 34
100 97 80 44 16 11 11 12 12 14 26 43 51 56 51 50 50 53 61 70 61 49 40 26 25 28 21 21 28 24 19 18 19 19 16 14 13 14 14 16 20 28 34 48
48 21 12 11 11 11 12 16 25 50 73 84 79 76 70 64 68 74 69 55 39 29 29 34 30 23 30 34 26 23 22 23 22 18 15 15 16 16 16 17 21 31 44 57

GFSNGP_500_rhum_018.txt.gz
RH
18 20 18 17 10 18 28 47 28 21 31 34 28 20 18 17 13 12 13 17 18 17 34 11 11 26 40 87 99 97 84 72 73 62 64 59 53 55 70 73 75 76 80 82
19 12 10 12 12 12 21 59 61 47 34 33 24 19 18 16 16 17 21 20 17 19 23 24 17 22 63 70 98 78 74 66 56 58 50 51 66 75 77 80 66 64 91 86
10 10 11 11 10 10 16 37 23 27 37 24 25 26 23 24 27 29 32 32 30 32 25 18 12 10 10 32 38 39 48 46 50 55 69 77 75 70 60 63 83 82 92 100
7 7 9 12 14 13 13 16 22 31 33 33 31 30 31 30 29 24 21 22 23 18 11 8 9 12 22 39 44 42 45 58 61 76 82 66 55 55 59 98 84 100 96 100
45 29 22 24 19 16 14 21 27 30 30 30 32 33 30 24 17 17 20 19 13 9 7 10 18 38 45 38 34 43 53 64 77 69 59 62 78 65 73 86 100 87 100 100
77 61 48 41 29 25 17 21 26 28 30 30 26 24 19 17 18 17 15 11 9 8 11 24 42 42 31 32 49 61 69 68 64 65 94 59 100 100 29 98 70 80 100 100
33 28 25 24 29 22 17 24 29 30 24 19 18 16 11 9 7 6 6 7 11 19 37 45 40 31 32 46 65 70 68 70 68 72 50 31 21 7 7 12 40 79 100 100
31 28 26 26 27 25 25 16 12 14 14 11 8 7 6 6 5 5 6 11 23 38 43 42 35 36 56 76 74 71 71 69 60 33 10 5 5 5 6 9 15 76 100 82
14 14 13 13 13 12 11 13 12 10 9 8 8 8 8 7 7 8 12 25 38 45 44 40 46 58 71 74 72 72 70 52 20 6 4 5 5 6 6 11 55 82 51 58
14 14 12 12 12 12 12 12 11 10 10 11 12 12 11 10 12 16 27 41 48 49 56 64 71 79 79 75 72 64 43 16 6 5 5 5 5 6 9 25 62 54 42 61
18 19 18 15 13 12 11 11 12 12 14 14 16 16 16 15 17 25 44 53 55 59 70 78 79 78 75 73 63 42 19 7 6 5 6 6 7 9 18 38 41 37 53 90
22 19 16 14 14 13 12 11 13 17 25 33 34 30 23 19 29 50 56 58 62 74 83 83 79 74 72 65 44 15 7 6 6 7 7 8 10 17 34 44 58 77 98 100
19 19 20 21 21 18 16 18 24 37 46 45 43 33 25 37 54 61 63 69 80 88 89 84 78 75 69 49 18 7 6 7 7 8 9 11 14 26 48 87 100 100 98 87
20 21 21 21 19 18 20 29 52 57 54 50 38 30 35 56 64 67 73 83 94 97 93 88 83 70 51 21 7 6 6 8 9 11 13 18 32 54 71 72 66 66 82 75
24 20 19 20 20 22 32 58 67 63 56 45 34 42 65 68 74 85 93 99 100 100 99 94 80 54 19 7 6 8 9 10 11 13 17 29 52 64 59 53 55 53 49 48
21 20 23 26 28 53 73 79 79 66 47 41 60 71 74 86 95 100 100 100 100 100 96 87 58 16 8 8 9 10 11 13 15 21 42 68 69 61 57 55 49 42 36 29
36 34 33 44 85 85 90 88 71 51 61 74 78 88 93 93 94 95 100 100 100 98 86 44 13 10 9 10 10 12 14 17 28 54 67 65 57 51 46 40 32 22 18 19
58 75 95 97 92 91 87 67 62 77 84 87 93 97 99 98 100 100 100 100 94 78 38 11 10 10 10 11 14 17 27 46 58 56 51 48 45 34 22 19 16 18 20 15
97 100 98 97 94 82 80 84 87 92 98 98 98 100 100 100 100 100 99 77 39 15 10 10 11 13 16 20 30 48 52 42 42 46 46 34 24 20 17 15 19 17 10 10
95 99 95 86 86 87 86 87 96 99 100 100 100 100 100 100 100 88 51 18 11 10 11 13 16 20 27 36 45 53 54 39 38 38 28 19 18 15 14 20 18 11 11 10
97 94 95 95 91 85 92 99 98 100 100 100 100 100 100 96 61 29 15 10 11 12 14 22 32 34 36 39 51 55 41 36 26 20 20 19 15 15 21 18 13 13 12 11
99 98 100 98 100 100 100 100 100 100 100 100 100 100 77 38 18 12 11 13 15 27 38 42 44 47 47 52 50 40 29 20 22 24 20 18 23 24 18 16 16 16 14 12
100 100 100 100 100 100 100 100 100 100 100 100 97 73 37 21 14 12 16 27 47 56 56 58 58 55 53 43 35 25 25 29 25 20 29 34 26 22 20 20 18 16 13 13
90 97 100 100 100 100 100 100 100 100 94 75 53 34 19 13 19 34 57 65 65 64 68 65 61 52 41 32 29 34 33 27 24 37 35 27 24 23 21 18 15 13 13 15
94 99 100 100 100 100 100 100 88 65 49 43 25 13 14 32 66 82 79 68 75 77 70 62 50 39 31 37 40 34 30 28 34 29 22 26 26 23 18 16 15 15 15 16
100 100 100 100 100 98 90 72 45 28 16 12 18 32 50 84 88 78 84 86 82 72 57 44 37 33 37 27 14 33 39 36 29 24 27 29 24 18 17 18 18 18 20 23
100 100 98 89 74 58 38 18 12 13 19 29 48 69 98 100 99 99 96 85 72 51 43 37 38 34 15 7 28 50 40 29 26 29 30 25 19 18 19 18 28 48 58 61

GFSNGP_500_rhum_021.txt.gz
RH
84 57 30 20 22 27 23 14 16 14 22 16 24 26 23 21 17 16 15 15 19 18 24 36 26 25 39 57 51 55 54 54 50 47 50 66 76 59 51 65 72 68 66 74
81 48 30 22 24 25 12 10 10 10 18 26 25 36 32 24 19 17 21 23 18 16 16 14 8 6 6 6 13 12 12 30 43 45 39 56 39 52 62 66 65 60 100 100
70 51 35 20 11 11 11 13 13 12 16 22 27 30 29 31 30 28 24 19 20 18 14 12 8 7 6 7 10 20 38 44 37 36 38 52 62 69 68 64 76 100 73 100
31 24 13 8 12 12 11 10 11 14 13 15 22 23 25 23 21 22 24 22 15 11 9 6 6 6 7 11 22 38 43 38 30 57 78 74 76 72 67 73 100 58 31 72
18 22 40 9 15 18 16 17 15 15 16 21 32 32 28 30 29 24 19 13 10 7 5 5 6 7 12 23 36 42 40 34 62 80 81 74 66 100 75 92 62 7 7 21
17 42 75 86 62 52 46 27 21 15 18 29 32 32 30 26 19 13 11 8 6 5 5 5 7 11 19 33 43 42 41 51 79 80 72 56 58 58 40 14 5 4 5 6
12 19 24 29 47 55 39 29 33 30 33 32 32 30 19 13 12 10 8 8 8 7 7 8 15 29 41 47 48 53 59 73 77 64 61 62 52 31 10 6 5 6 7 8
12 15 19 32 36 28 29 30 32 37 38 24 15 12 12 12 11 11 11 11 11 11 12 18 27 44 52 54 61 71 79 74 68 67 64 51 26 8 6 6 7 8 8 9
12 14 19 20 17 21 22 23 20 16 14 13 14 15 16 14 13 14 18 20 20 16 17 28 44 52 54 59 71 76 76 73 71 65 54 28 11 7 7 8 8 9 10 12
12 13 13 13 16 17 17 17 17 16 16 16 17 17 21 29 35 37 36 31 23 20 29 44 52 58 62 72 80 83 81 77 67 54 36 14 8 7 7 8 9 11 13 24
13 15 15 16 20 19 17 17 17 16 16 16 18 22 29 39 44 46 42 32 24 30 47 56 62 70 80 92 97 94 88 82 67 45 17 8 7 8 9 10 12 15 26 52
21 30 26 24 21 18 17 16 16 15 15 15 15 19 30 44 53 51 41 28 35 51 58 64 75 90 100 100 99 94 91 79 57 26 11 8 8 9 12 14 18 32 56 82
24 28 27 24 20 17 16 17 16 16 15 15 17 27 52 62 65 52 34 37 52 60 68 80 90 94 95 92 93 97 93 65 27 11 9 10 11 12 13 17 39 62 85 89
24 23 21 22 22 22 22 20 18 16 16 20 30 52 70 75 63 42 45 56 66 77 82 84 86 86 90 99 100 97 69 27 12 10 10 12 13 16 25 38 47 55 60 57
29 33 33 32 30 27 25 21 19 20 24 38 61 78 87 73 51 51 63 75 82 84 86 86 85 95 100 100 91 48 19 11 10 11 12 15 21 31 44 40 39 44 47 45
46 46 45 40 35 29 25 26 30 32 46 82 86 83 78 60 63 75 80 85 92 94 91 92 99 100 98 68 30 15 11 10 11 16 23 27 34 52 54 37 36 36 32 26
68 63 46 40 39 40 42 41 44 65 96 100 90 76 70 78 87 85 87 97 100 100 100 100 100 88 52 26 13 11 10 13 23 30 31 37 46 42 31 26 19 18 18 19
69 65 63 59 60 63 79 89 97 100 100 91 83 84 90 93 94 91 99 100 100 100 100 100 77 43 25 16 12 13 22 32 35 34 35 36 34 23 18 18 20 20 19 17
45 48 54 60 79 90 96 96 96 97 94 97 97 98 99 98 98 100 100 100 100 100 98 81 54 36 24 15 20 32 41 42 40 43 39 30 22 23 24 24 21 19 22 26
66 98 100 87 73 81 98 100 100 100 100 100 97 95 98 100 100 100 100 100 100 99 89 66 44 24 20 30 42 49 52 44 43 34 24 23 25 24 26 24 26 38 36 27
91 93 100 100 100 100 99 100 100 100 96 97 100 100 100 100 100 100 100 100 82 60 50 40 25 29 45 53 55 49 45 40 31 25 24 19 8 18 29 31 33 23 22 24
100 100 100 100 100 100 98 93 97 100 100 100 100 100 100 100 100 99 86 72 65 54 34 25 41 57 59 64 55 49 41 28 26 24 13 7 10 28 34 30 22 20 20 20
98 94 98 100 100 100 100 100 100 100 100 100 100 100 100 100 92 87 80 62 42 28 38 59 70 73 82 72 57 41 30 27 26 16 8 9 29 36 28 24 20 20 18 15
100 100 100 100 100 100 100 100 100 100 100 100 100 100 95 89 81 66 44 27 28 48 74 79 83 88 82 62 46 36 29 30 20 10 8 23 38 28 24 20 21 17 16 17
100 100 100 100 100 100 100 100 100 100 100 100 94 83 72 38 27 20 18 29 45 60 72 81 86 82 63 49 41 34 35 26 12 10 14 36 32 27 23 23 19 19 20 18
100 100 100 100 100 100 100 100 100 98 91 86 64 39 18 17 20 26 38 50 69 75 79 82 73 56 47 43 40 38 33 14 12 11 23 33 30 28 26 22 21 25 25 28
100 100 100 100 100 100 99 95 93 82 52 27 16 15 17 20 23 31 39 47 61 69 68 58 48 44 45 43 44 38 15 14 13 13 21 27 28 28 26 24 29 28 26 32

GFSNGP_500_rhum_024.txt.gz
RH
42 56 48 55 60 63 48 40 33 26 19 17 14 50 30 22 23 25 23 21 20 18 18 18 21 31 36 26 14 10 7 28 51 40 32 45 49 44 34 51 89 92 77 83
83 86 71 74 47 22 16 18 20 14 7 10 11 39 60 34 30 26 22 21 19 20 20 18 15 10 9 6 4 4 4 6 12 23 35 43 43 36 68 100 84 80 70 99
80 100 95 49 23 27 22 17 10 7 10 13 12 14 27 49 43 33 27 25 23 22 20 16 10 8 5 5 4 5 6 11 22 37 43 44 42 80 95 84 79 73 75 96
72 79 58 26 14 9 9 9 10 11 10 10 11 13 15 26 30 31 27 23 20 18 13 10 7 6 6 5 6 7 10 17 28 42 46 49 65 78 78 75 98 100 67 46
48 30 21 10 15 29 46 13 11 12 13 16 14 14 18 27 32 28 24 23 20 14 10 6 7 8 8 9 9 9 13 22 37 49 54 60 74 78 74 73 93 66 48 26
48 37 16 9 13 28 76 48 41 33 27 24 18 15 27 31 29 29 27 20 13 9 9 10 10 12 14 14 12 13 21 35 48 52 59 74 81 77 74 67 56 44 27 12
66 41 19 13 10 17 27 32 48 48 38 28 20 20 25 30 31 24 15 12 11 12 13 16 24 27 22 18 16 23 39 51 56 63 77 83 82 83 82 71 58 37 17 9
66 27 12 12 12 18 27 29 29 29 31 30 25 24 28 19 15 14 15 16 20 26 33 37 37 33 24 19 25 39 53 62 72 85 92 95 95 90 83 74 59 27 12 9
29 29 11 10 14 23 25 29 27 26 26 22 16 15 16 16 17 18 18 17 24 35 41 44 43 33 23 26 40 55 64 78 93 100 100 96 93 88 84 70 42 16 10 10
30 24 11 13 14 15 15 15 15 15 15 15 15 15 16 16 15 14 15 19 30 46 56 56 45 32 29 40 55 66 73 79 83 87 90 86 85 86 73 38 17 11 10 10
29 11 13 17 17 17 21 21 19 18 18 18 18 17 16 15 15 16 20 35 48 58 63 57 42 34 44 60 67 71 74 77 79 76 74 82 88 70 35 16 12 10 12 15
31 17 17 17 20 24 25 23 21 20 21 20 18 17 17 16 16 19 24 38 51 63 62 51 43 52 67 74 77 80 77 73 75 84 91 87 64 38 18 12 12 17 22 28
24 20 20 22 24 28 28 26 22 21 23 23 22 21 19 18 21 27 44 59 61 66 61 55 60 73 80 86 89 84 81 89 96 97 79 48 33 22 14 11 19 26 31 45
30 26 25 25 26 26 24 22 19 19 23 26 26 25 24 29 36 63 87 83 74 70 67 70 79 87 92 95 95 95 98 100 99 82 56 39 31 19 13 14 13 15 26 30
85 69 35 33 27 25 22 21 24 30 33 32 32 34 40 46 62 94 95 85 82 80 80 84 87 91 96 96 100 100 100 99 94 81 63 39 21 18 22 22 20 20 20 21
81 60 45 42 39 36 36 38 49 50 42 41 49 52 55 75 92 99 92 95 96 91 91 91 89 92 99 100 100 100 100 98 82 62 40 24 22 25 21 19 17 14 16 16
92 81 88 90 79 75 82 80 69 57 60 60 65 88 88 100 100 100 100 100 100 100 100 98 99 100 100 100 100 100 86 71 65 40 21 26 30 20 16 13 14 16 11 6
99 99 100 100 99 94 88 81 76 54 56 72 80 88 100 100 100 100 100 100 100 100 100 100 100 100 100 100 92 78 78 60 28 22 34 34 21 16 15 17 16 10 7 8
96 94 86 66 58 55 51 50 61 85 98 93 98 100 100 100 100 100 100 100 100 100 100 100 100 100 98 83 80 68 40 23 36 42 38 23 20 19 20 19 13 7 8 20
98 94 82 73 66 62 71 99 100 100 100 100 100 100 100 100 100 100 100 100 100 100 100 100 100 94 90 72 52 30 26 38 40 35 22 22 22 23 23 15 9 8 17 29
79 76 77 84 90 93 96 100 100 100 100 100 100 100 100 100 100 100 100 100 100 100 100 100 95 78 57 36 26 28 35 31 21 23 26 25 26 28 18 10 9 13 26 28
97 96 95 100 100 100 100 100 100 100 100 100 100 100 100 100 100 100 100 100 100 100 95 82 60 44 30 26 30 24 18 20 28 29 27 29 29 21 12 11 11 20 29 23
100 100 98 100 100 100 99 97 97 100 100 100 100 100 100 100 100 100 100 100 97 92 76 52 28 19 22 20 18 21 24 27 28 30 31 29 23 11 11 12 12 20 24 20
100 100 100 100 98 94 98 100 100 100 100 100 100 100 100 100 100 100 98 94 85 50 21 16 16 17 18 21 26 30 28 30 32 30 30 22 11 12 14 13 15 19 22 23
100 100 100 99 100 100 100 100 100 100 100 100 100 100 100 100 98 94 77 39 22 16 16 18 17 18 29 36 33 30 32 31 30 31 22 12 11 16 15 16 18 23 26 24
100 100 100 100 100 100 100 100 100 100 100 100 100 100 100 91 67 44 25 20 18 18 18 19 28 39 39 34 33 34 33 32 31 25 16 11 15 16 17 19 24 26 25 28
100 100 100 100 100 100 100 100 100 100 100 100 96 80 58 37 25 20 20 19 18 20 25 35 40 36 33 35 37 38 38 36 30 21 15 13 17 17 18 23 26 25 26 32

GFSNGP_500_rhum_030.txt.gz
RH
21 32 41 34 80 92 87 68 72 48 60 56 57 41 39 19 18 12 11 20 15 23 29 31 38 35 31 28 32 46 42 30 27 16 7 7 10 14 16 14 15 17 22 36
30 34 44 44 38 57 57 62 43 41 43 61 37 18 20 17 10 12 12 13 21 27 41 44 37 29 28 34 40 34 28 16 8 9 11 18 24 26 21 18 16 19 23 45
31 37 41 33 35 39 38 36 39 42 45 26 21 19 17 13 10 12 12 12 14 28 43 48 44 41 36 33 31 23 11 9 12 18 23 24 32 29 24 21 19 23 37 56
59 59 30 25 36 40 43 60 62 60 35 14 33 35 11 9 11 13 11 12 15 16 28 39 41 41 36 32 19 11 12 18 22 19 25 39 41 36 28 22 28 41 56 68
62 35 30 21 27 50 55 70 71 28 21 17 25 65 43 10 12 11 13 15 16 18 26 37 36 35 25 13 13 18 20 20 21 30 45 48 44 35 28 32 43 56 63 71
76 42 18 30 57 63 45 22 46 19 14 14 21 35 59 42 30 23 21 18 17 31 34 32 21 13 14 16 15 14 16 18 25 41 50 50 44 38 37 43 50 57 66 74
69 55 26 23 45 66 43 32 40 18 10 12 16 19 21 39 48 41 27 20 25 32 21 14 15 15 14 14 13 14 16 24 35 46 53 52 46 43 45 53 63 73 79 76
69 64 24 30 40 66 61 41 24 10 10 13 18 22 22 25 32 33 27 29 19 15 15 14 14 14 14 15 17 21 29 43 52 53 54 54 54 57 61 63 68 76 84 86
54 43 56 43 49 82 65 33 23 10 10 13 16 20 20 23 26 19 15 15 14 15 14 16 17 17 19 21 25 28 40 51 59 55 59 62 62 58 59 62 65 67 69 67
88 74 81 75 50 40 45 27 24 10 12 12 13 14 13 14 14 15 16 16 16 18 21 21 22 24 26 29 33 37 44 55 58 60 66 65 59 61 62 64 63 62 61 61
84 78 74 99 94 46 33 23 22 10 13 13 14 16 16 17 18 18 18 20 22 24 26 26 28 32 35 41 42 46 53 59 64 68 66 61 62 60 61 61 64 64 65 68
81 98 99 97 61 26 20 23 21 12 15 17 20 22 22 24 24 23 22 21 21 23 26 35 40 42 50 50 48 57 64 70 70 66 63 65 62 62 69 69 67 72 72 72
89 95 74 72 83 49 31 32 27 17 17 19 24 28 29 28 27 24 23 22 21 27 46 53 53 54 53 52 58 71 74 67 66 69 73 73 73 75 77 74 80 83 83 75
91 95 98 100 97 100 68 36 40 29 20 24 26 26 25 26 26 26 28 30 40 65 74 69 54 54 65 70 71 73 70 67 74 75 75 76 79 83 82 83 84 82 74 58
64 94 86 92 98 99 94 83 74 64 32 26 28 30 35 40 42 44 57 77 92 81 68 55 68 87 81 77 78 78 74 74 78 81 80 82 86 86 88 87 82 74 56 35
72 99 88 94 98 98 100 100 100 94 81 68 74 92 91 76 77 93 100 90 63 53 68 95 95 94 86 85 85 88 85 87 90 88 90 89 91 94 91 85 72 50 32 22
70 79 92 100 100 94 90 82 80 96 98 98 94 80 95 100 100 100 88 85 68 84 85 98 100 100 100 95 96 97 100 100 99 96 98 98 99 94 86 72 48 30 20 13
20 58 71 87 88 99 98 100 100 100 99 92 97 100 100 98 98 94 100 100 100 100 100 100 100 100 100 100 100 100 100 100 100 100 100 99 94 86 74 52 32 21 12 12
43 51 58 72 86 92 95 100 100 90 97 98 100 99 100 99 98 94 96 100 100 100 100 100 100 100 100 100 100 100 100 100 100 100 98 92 87 79 59 35 22 14 14 19
72 76 80 99 89 100 93 95 100 100 99 100 100 100 99 96 96 100 100 100 96 90 99 100 100 100 100 100 100 100 100 100 99 96 93 91 82 59 35 20 16 17 21 25
99 95 85 99 100 99 100 100 100 98 99 99 100 100 100 100 100 100 100 100 100 100 100 100 100 100 100 100 100 100 100 99 96 95 94 82 55 29 18 18 21 23 26 30
100 99 100 99 86 89 92 91 95 96 100 100 100 100 100 100 100 100 100 100 100 100 100 100 100 100 100 100 100 100 98 98 96 87 58 36 22 20 22 24 26 27 29 41
99 99 98 98 99 97 92 92 97 100 100 100 100 100 100 100 100 100 100 100 100 100 100 100 100 100 100 99 99 99 99 96 86 42 25 24 24 26 28 28 28 31 42 54
100 100 99 100 100 100 100 100 100 100 100 100 100 100 100 100 100 100 100 100 100 100 100 100 100 100 100 98 94 87 86 85 47 32 29 29 29 29 29 31 38 53 67 64
100 100 100 100 100 100 100 100 100 100 100 100 100 100 100 100 100 100 100 100 100 100 98 95 94 90 80 73 79 69 36 33 32 27 29 30 31 33 39 51 71 81 78 58
100 100 100 100 100 100 100 100 100 100 100 100 100 100 100 100 100 100 100 97 96 95 89 69 45 35 33 27 26 27 26 24 26 30 34 40 50 63 78 89 91 83 60 44
100 100 100 100 100 100 100 100 100 100 100 100 100 100 100 100 100 100 96 80 51 30 24 24 24 24 23 22 22 22 25 32 42 57 71 81 88 93 95 87 72 56 47 47

GFSNGP_500_rhum_033.txt.gz
RH
41 61 100 98 71 78 100 100 99 78 100 98 96 100 69 60 54 37 22 22 11 15 22 21 26 30 32 26 29 34 39 46 64 74 55 29 19 9 10 17 28 28 31 30
45 43 94 94 100 97 100 97 94 100 95 100 100 95 46 47 30 21 20 9 10 12 19 25 28 32 32 32 41 64 63 58 44 31 24 11 10 15 23 25 27 37 41 36
42 30 57 65 35 88 91 89 94 69 49 85 88 98 40 25 15 16 18 12 9 12 12 13 25 52 51 59 58 49 40 33 30 17 11 14 21 23 24 27 34 46 48 39
45 33 32 18 28 37 32 35 42 37 36 47 93 62 17 13 14 14 9 9 10 12 13 13 18 65 77 59 49 43 38 32 15 14 20 22 21 23 25 32 47 51 49 44
44 40 29 25 29 34 36 27 46 39 61 68 76 10 13 18 21 50 49 12 11 12 15 15 18 21 28 41 43 38 23 14 18 19 17 17 18 20 28 37 43 50 51 54
42 61 32 26 28 40 41 31 47 53 70 32 16 12 14 15 25 36 52 22 20 18 19 17 20 35 39 38 23 15 18 16 14 15 16 17 22 30 46 52 53 56 61 57
78 55 29 30 74 100 40 45 98 81 39 20 14 10 10 13 16 20 26 49 47 35 23 20 31 36 21 16 17 16 15 16 17 20 23 26 32 43 50 55 54 64 63 58
87 80 40 46 41 56 38 55 58 42 30 23 17 9 10 13 18 19 21 25 35 28 21 28 22 16 16 15 16 18 19 23 26 29 33 35 40 42 50 63 69 62 58 60
83 60 66 68 78 78 41 43 40 36 32 30 17 9 11 12 15 17 19 24 25 22 16 15 15 16 18 20 22 24 26 29 32 36 39 39 44 56 65 64 58 56 59 58
97 74 68 62 75 100 76 50 64 53 47 28 17 10 11 11 13 14 14 13 14 14 15 16 17 19 20 20 20 24 29 36 40 44 44 51 62 65 62 57 55 56 57 58
70 80 91 81 92 98 83 62 29 31 37 24 16 10 12 12 13 13 14 15 16 17 18 19 20 20 19 20 25 39 50 54 53 53 57 64 65 65 61 56 55 57 59 64
93 98 100 99 100 95 93 84 60 35 32 23 17 12 14 15 17 19 20 22 24 25 25 23 23 23 27 37 58 71 70 55 52 67 69 61 59 67 69 64 66 71 73 78
96 98 95 100 100 93 91 90 61 33 26 32 23 15 16 18 20 22 26 30 30 27 25 25 28 32 47 72 85 79 57 64 75 76 71 69 68 70 71 79 93 96 91 87
100 96 97 96 100 100 84 78 76 95 81 47 44 26 19 22 26 26 23 22 21 23 25 34 39 55 75 82 61 54 60 78 89 86 86 89 82 80 91 93 95 89 85 92
96 96 96 97 98 95 96 100 95 95 90 89 68 60 44 30 28 23 21 21 31 60 75 72 86 94 87 70 64 68 74 86 88 88 96 97 92 92 100 100 100 100 98 95
88 52 39 80 97 96 97 100 97 93 87 100 99 94 92 82 76 73 71 79 94 83 90 91 95 98 100 100 99 99 99 99 100 99 100 98 99 100 100 100 100 99 98 94
38 32 15 23 50 52 79 100 93 99 97 100 100 94 100 100 100 100 100 92 82 88 97 100 100 96 87 100 100 100 100 100 100 100 100 100 100 100 100 100 100 99 96 90
9 10 22 52 63 66 70 93 96 91 95 100 94 91 98 100 100 92 97 99 100 100 100 100 100 100 100 100 100 100 100 100 100 100 100 100 100 100 100 100 98 97 91 76
16 11 9 9 10 12 31 62 72 79 86 88 90 92 91 98 100 100 100 100 100 100 100 100 98 100 100 100 100 100 100 100 100 100 100 100 100 100 99 99 98 94 67 32
18 16 16 34 41 41 48 60 67 90 91 98 100 100 100 100 100 100 100 100 100 99 99 100 100 100 100 100 100 100 100 100 100 100 100 100 100 100 99 95 80 51 34 30
58 62 65 78 84 81 81 86 100 100 100 100 100 100 99 99 100 100 100 99 100 100 100 100 100 100 100 100 100 100 100 100 100 100 100 100 100 91 69 49 36 30 31 29
88 94 100 100 94 99 100 100 100 100 100 100 100 100 100 100 98 99 100 100 100 100 100 100 100 100 100 100 100 100 100 100 100 100 97 81 49 31 28 27 28 28 26 27
100 100 100 100 100 100 100 100 100 100 100 100 100 100 100 100 100 100 100 100 100 100 100 100 100 100 100 100 100 100 100 100 94 71 34 23 23 24 24 24 25 27 32 43
96 92 88 94 97 99 98 97 100 100 100 100 100 100 100 100 100 100 100 100 100 100 100 100 100 100 100 100 100 98 85 46 22 21 22 22 22 21 22 26 33 43 54 65
100 100 100 100 100 100 100 100 100 100 100 100 100 100 100 100 100 100 100 100 100 100 100 100 100 99 97 81 49 23 19 20 21 20 18 18 19 21 21 21 21 23 32 56
100 100 100 100 100 100 100 100 100 100 100 100 100 100 100 100 100 100 100 99 98 99 100 92 71 39 21 17 18 18 16 15 15 15 14 13 12 12 13 16 19 21 24 38
100 100 100 100 100 100 100 100 100 100 100 100 100 100 99 98 98 100 99 95 75 46 24 17 16 16 15 14 13 13 13 12 12 12 13 13 14 15 19 25 28 24 27 47

GFSNGP_500_rhum_036.txt.gz
RH
100 95 93 95 85 68 78 99 99 74 98 66 91 70 90 98 78 95 48 39 35 26 16 16 10 12 12 12 20 39 56 44 33 46 50 76 70 59 34 25 12 12 19 20
96 100 83 71 97 100 84 48 94 100 97 89 95 100 87 82 89 55 47 42 25 20 16 9 7 8 10 19 24 30 33 36 46 64 77 66 38 30 17 11 19 22 18 20
89 92 72 72 65 100 100 100 100 84 89 91 100 89 95 83 46 37 39 27 17 15 15 18 12 10 11 15 29 38 51 72 76 57 36 29 27 13 13 16 13 16 16 17
98 94 60 58 65 68 91 88 89 90 98 100 79 79 79 85 95 26 13 14 22 30 13 8 8 11 13 13 19 42 85 47 42 40 38 29 15 20 20 16 15 17 20 24
70 77 67 70 55 51 62 41 56 69 78 85 76 52 49 40 34 16 15 16 18 23 54 39 12 11 13 16 16 18 22 33 41 38 19 18 22 17 17 19 21 26 28 30
89 73 65 68 56 47 57 54 53 98 95 86 78 78 37 16 15 14 13 14 18 22 47 25 18 17 17 18 17 22 36 38 26 18 23 18 18 20 22 26 30 34 36 37
89 90 73 75 63 77 84 52 61 100 79 74 98 61 17 17 13 10 10 13 15 17 19 43 46 35 25 19 21 34 34 18 19 17 19 21 22 23 27 34 40 40 42 49
83 93 87 88 96 66 73 77 100 82 100 76 57 38 28 14 14 9 9 12 14 15 18 22 36 33 22 23 29 19 18 18 20 20 19 19 24 36 44 49 47 48 58 64
89 80 90 100 94 68 85 94 94 75 66 56 42 28 22 25 22 10 10 11 11 13 16 21 25 24 20 16 17 17 18 20 19 18 18 22 42 57 59 52 49 68 69 64
97 92 97 82 91 85 100 99 96 98 65 73 40 37 41 33 20 10 10 10 11 14 15 14 14 14 16 17 18 19 20 20 20 20 24 37 70 70 54 58 77 72 73 76
85 93 95 94 100 88 91 100 100 100 78 37 36 41 63 45 21 11 11 11 13 14 14 14 16 17 18 20 22 22 22 22 24 31 50 74 79 66 71 80 84 79 78 85
100 100 99 96 89 84 88 91 99 99 81 74 63 40 34 32 24 14 12 13 15 16 17 19 21 22 25 26 25 23 24 32 45 67 88 82 62 61 78 87 91 94 100 97
99 100 91 92 98 98 95 97 100 79 84 87 72 43 26 26 24 22 14 14 17 21 23 24 27 29 29 24 24 31 63 74 86 100 92 74 77 99 98 90 95 100 100 99
96 93 87 100 94 87 99 99 98 98 84 79 72 81 87 68 35 36 34 21 18 19 21 24 27 31 30 39 83 87 81 98 100 93 94 99 100 100 100 100 100 100 99 100
80 76 84 97 96 96 97 97 92 99 81 92 84 87 89 88 91 66 60 63 64 51 49 47 42 58 82 91 99 98 95 99 100 93 80 79 100 100 100 100 100 99 96 93
79 90 94 93 92 89 98 98 99 98 100 98 92 90 94 93 84 94 98 99 100 100 100 100 100 99 100 100 100 100 100 100 100 99 100 100 100 100 100 100 100 100 100 100
85 94 84 82 89 82 81 85 91 98 97 97 90 91 96 100 100 100 100 99 99 99 100 100 99 100 100 100 100 100 100 100 100 100 100 100 100 100 100 100 100 100 100 100
13 24 72 55 62 56 46 34 18 49 80 86 99 96 100 99 97 100 100 97 94 98 98 100 100 100 100 100 100 100 100 100 100 100 100 100 100 100 100 100 100 100 100 100
8 8 8 8 10 11 15 15 34 54 64 69 72 69 85 94 99 99 98 100 100 99 100 100 100 100 100 100 100 100 100 100 100 100 100 100 100 100 100 100 100 100 100 98
24 12 8 8 17 17 13 11 13 14 14 16 13 54 71 90 100 100 100 100 100 100 100 100 100 100 100 100 100 100 100 100 100 100 100 100 100 100 100 100 100 99 83 45
68 53 40 35 38 49 62 60 56 76 87 77 74 91 99 100 100 100 100 100 100 100 100 100 100 100 100 100 100 100 100 100 100 100 100 100 100 100 100 98 79 39 18 19
95 100 100 100 100 100 100 100 100 100 100 100 100 100 100 100 100 100 100 100 100 100 100 100 100 100 100 100 100 100 100 100 100 100 100 100 99 94 67 28 16 16 15 15
88 96 100 100 100 100 100 100 100 100 100 100 100 100 100 100 100 100 100 100 100 100 100 100 100 100 100 100 100 100 100 100 100 99 96 77 36 14 13 13 12 13 13 12
100 100 100 100 100 100 100 100 100 100 100 100 100 100 100 100 100 100 100 100 100 100 100 100 100 100 100 100 100 100 100 94 72 34 13 11 11 10 11 11 11 10 12 13
100 100 100 100 100 100 100 100 100 100 100 100 100 100 100 100 100 100 100 100 100 100 100 100 100 100 99 95 81 53 24 12 10 10 9 10 10 10 9 10 10 11 13 15
100 100 100 100 100 100 100 100 100 100 100 100 100 100 100 100 100 100 100 100 100 100 97 90 76 48 23 12 10 10 10 10 10 10 10 9 9 10 11 11 12 14 15 16
100 100 100 100 100 100 100 100 100 100 100 100 100 100 100 100 97 91 79 63 42 24 13 10 10 10 10 10 10 11 11 11 10 10 10 11 12 11 12 14 15 15 14 12

GFSNGP_500_rhum_039.txt.gz
RH
68 84 92 96 98 88 72 54 50 55 85 75 76 83 98 96 100 88 89 97 61 36 30 33 25 17 17 13 13 21 11 12 13 29 33 37 57 49 41 76 56 32 29 13
74 93 91 97 90 98 79 78 64 45 49 89 69 84 99 92 64 88 68 52 45 51 32 26 20 17 14 9 7 7 8 15 24 23 20 29 47 76 71 43 33 23 12 14
68 91 100 98 60 78 83 86 97 57 34 48 90 90 92 76 85 77 72 62 56 54 38 27 14 14 19 18 11 9 10 10 12 18 37 47 41 35 30 29 18 14 14 14
73 100 99 41 60 80 69 94 83 78 84 83 95 98 99 77 97 88 30 29 51 38 16 12 25 36 43 18 8 9 10 11 25 24 23 27 27 30 28 15 16 15 16 15
89 80 80 60 55 79 87 70 75 57 53 69 79 96 87 85 73 76 53 38 36 14 14 15 17 19 38 45 28 11 13 30 17 15 18 28 30 20 15 14 16 17 14 14
100 98 77 53 76 86 80 54 65 62 59 74 81 92 90 97 51 40 40 46 22 13 11 12 14 16 18 37 31 24 22 20 20 18 29 32 19 16 16 18 17 14 15 16
100 95 59 65 92 96 78 55 77 79 62 40 63 64 82 62 59 46 52 30 15 13 10 12 14 16 18 22 38 43 36 26 19 22 30 18 16 17 19 19 17 17 18 36
100 89 70 85 99 97 70 81 95 88 51 48 66 77 82 46 85 73 57 30 15 15 9 11 13 14 15 17 29 35 27 21 26 21 16 16 18 19 18 19 20 25 45 72
100 92 94 100 96 94 92 100 100 90 70 91 75 89 70 70 44 38 34 21 22 22 12 10 11 12 14 20 25 24 25 24 17 18 18 20 21 21 22 24 33 60 80 81
98 100 100 100 94 100 100 97 84 100 78 92 83 74 76 59 42 38 31 32 34 23 11 10 10 11 13 16 16 16 17 18 19 20 22 24 24 26 36 55 76 98 98 79
97 100 97 64 71 94 97 100 78 78 91 90 69 65 57 81 53 49 50 52 55 28 13 10 11 12 13 13 14 16 19 22 23 24 27 30 32 49 79 87 100 100 100 100
98 99 95 91 95 98 99 97 88 98 98 98 77 54 56 57 44 43 42 41 42 31 17 13 13 14 15 15 17 21 24 28 30 34 34 40 85 100 100 100 100 100 100 100
84 94 94 100 100 89 100 99 99 99 99 96 66 65 73 80 74 66 56 34 35 31 25 18 17 20 21 23 25 29 32 33 35 37 42 54 91 100 100 100 100 100 100 92
83 84 80 96 100 100 97 98 96 97 94 74 87 100 87 85 77 70 61 60 58 47 44 40 30 27 25 27 31 38 44 55 83 98 98 100 100 100 100 100 100 100 100 100
80 73 72 77 93 91 92 98 98 94 82 75 74 94 97 86 82 75 65 76 87 100 97 74 64 67 75 73 81 92 96 100 100 100 100 100 100 100 100 100 100 100 100 100
73 67 73 75 75 88 94 99 98 98 100 95 91 94 95 92 93 99 94 85 89 99 99 99 100 99 100 100 100 100 100 100 100 100 100 100 100 100 100 100 100 100 100 100
94 90 75 70 70 80 93 95 91 85 83 88 100 97 92 94 98 100 100 96 97 100 100 100 100 100 100 100 100 100 100 100 100 100 100 100 100 100 100 100 100 100 100 100
93 84 89 97 97 92 83 84 88 86 76 73 88 97 94 92 98 99 98 100 100 100 99 99 100 100 100 100 100 100 100 100 100 100 100 100 100 100 100 100 100 100 100 100
38 45 49 36 55 65 87 80 72 73 85 82 72 61 59 85 98 98 96 96 90 54 61 88 100 100 100 100 100 100 100 100 100 100 100 100 100 100 100 100 100 100 100 100
17 21 20 16 9 8 11 12 9 11 23 24 16 13 14 14 22 26 33 30 31 100 100 100 100 100 100 100 100 100 100 100 100 100 100 100 100 100 100 100 100 100 100 100
80 75 77 76 59 35 16 9 9 14 34 43 48 43 40 54 96 99 94 97 86 96 100 100 100 100 100 100 100 100 100 100 100 100 100 100 100 100 100 100 99 90 64 24
100 100 100 100 100 100 98 95 100 100 100 100 100 100 100 100 100 100 100 100 100 100 100 100 100 100 100 100 100 100 100 100 100 100 100 100 100 97 86 58 24 10 10 10
100 100 100 100 100 100 100 100 99 100 100 100 100 100 100 100 100 100 100 100 100 100 100 100 100 100 100 100 100 100 100 100 100 98 90 67 33 15 10 9 9 9 10 10
94 96 99 98 95 93 97 100 100 100 100 100 100 100 100 100 100 100 100 100 100 100 100 100 100 100 100 100 99 95 86 66 38 18 11 10 9 8 8 9 10 10 10 11
100 100 100 100 100 100 100 100 100 100 100 100 100 100 100 100 100 100 100 100 100 100 100 99 94 83 65 47 32 22 16 12 9 8 8 9 10 10 10 10 11 13 14 14
100 100 100 100 99 99 99 100 100 100 100 100 100 100 100 100 100 99 97 91 82 69 57 41 29 20 14 11 10 9 9 9 9 10 10 11 11 12 13 14 13 13 13 14
54 47 39 32 28 25 24 23 25 36 47 54 56 55 51 46 37 30 23 16 12 10 9 9 9 9 9 10 10 11 11 11 11 12 13 14 14 14 13 14 15 16 15 13

GFSNGP_500_rhum_045.txt.gz
RH
20 22 53 54 50 66 45 56 67 61 65 66 52 46 33 32 64 44 52 50 35 45 64 70 63 59 39 41 33 24 25 24 18 20 25 44 75 57 48 48 65 93 84 90
35 43 52 61 59 51 70 75 61 80 73 86 72 67 52 53 27 35 26 38 36 45 76 78 71 85 77 66 60 44 30 22 17 23 37 56 68 64 67 68 70 69 62 82
98 94 99 51 70 100 100 88 74 72 93 100 79 83 80 67 39 35 48 87 92 69 62 69 52 82 66 63 46 27 18 15 16 34 45 53 56 60 59 60 73 72 69 68
63 100 100 42 86 78 99 99 100 96 94 100 94 85 78 54 44 33 33 61 80 75 73 63 63 80 50 59 34 25 18 16 16 32 46 59 64 62 58 71 84 44 24 18
22 25 67 70 100 100 99 71 87 94 100 96 94 86 71 73 60 54 41 70 88 89 71 81 92 74 43 32 16 15 12 13 19 36 44 51 68 72 66 52 41 24 24 21
21 38 36 42 65 100 98 47 79 74 82 86 97 79 58 79 76 83 82 54 74 88 76 83 65 43 28 20 18 17 14 17 26 33 27 26 31 44 61 39 34 32 30 21
26 30 25 35 49 100 96 47 91 86 87 80 75 62 62 93 93 90 88 88 95 90 86 74 67 63 36 23 17 14 15 28 25 17 14 15 16 17 24 36 39 34 26 20
30 28 21 24 65 100 97 80 58 98 81 71 66 63 66 79 99 97 84 84 90 83 48 56 62 48 38 27 26 20 21 20 17 11 11 12 13 15 21 29 29 23 21 23
35 30 97 66 87 96 100 100 72 79 84 79 82 86 84 76 82 83 83 84 72 74 64 65 86 85 55 57 43 35 22 24 23 12 11 12 13 14 17 19 19 18 18 17
38 27 96 97 96 98 98 100 98 98 95 82 86 100 99 82 92 90 73 69 64 71 94 100 92 66 62 55 46 34 31 39 43 33 16 12 13 14 16 16 15 15 16 16
36 32 96 100 100 93 94 98 100 96 82 89 96 97 93 94 98 96 81 83 84 100 89 100 96 80 72 71 53 37 41 45 45 43 32 17 14 16 16 17 18 18 19 21
37 43 85 99 100 100 98 99 99 100 88 76 92 100 93 94 93 99 99 100 99 94 96 100 99 87 70 68 64 57 49 43 39 34 27 20 18 19 20 22 23 25 28 31
35 60 98 100 100 100 100 100 100 100 100 85 93 95 97 100 99 98 94 100 94 95 99 97 98 97 98 98 96 90 80 74 48 36 35 31 29 27 27 30 34 44 74 94
45 62 84 100 100 99 97 100 100 90 82 78 82 90 81 92 94 92 93 99 98 94 96 90 95 99 98 98 97 96 95 96 97 99 100 100 100 99 96 100 100 99 94 90
69 92 96 100 100 95 96 94 87 93 88 84 83 83 85 94 88 79 99 97 100 97 99 99 99 99 99 100 98 99 100 100 100 100 97 91 89 92 98 100 100 100 100 100
93 100 100 100 88 93 95 84 63 64 67 65 68 72 80 82 99 100 97 84 92 100 100 97 98 100 100 100 100 100 100 100 100 100 100 100 100 100 100 100 100 100 100 100
100 97 72 81 87 85 79 64 57 62 70 69 69 67 61 64 68 82 99 99 100 100 97 96 100 99 98 100 98 99 100 100 100 100 100 100 100 100 100 95 96 78 83 91
99 100 91 90 81 82 79 74 66 56 69 76 83 80 77 79 87 98 95 82 90 99 100 98 99 100 100 99 97 95 95 99 100 99 96 89 88 100 100 100 100 100 100 100
100 100 100 95 100 100 100 97 96 93 100 97 91 89 92 99 91 80 73 82 93 96 90 82 77 83 100 100 100 96 100 100 100 100 83 87 99 100 100 100 99 100 100 100
100 100 98 100 97 100 100 100 100 78 54 45 48 60 66 56 51 42 54 60 54 43 81 34 38 99 98 92 94 95 95 100 99 100 100 100 100 100 100 100 100 100 100 100
100 100 98 90 62 39 27 24 33 64 100 100 100 100 100 100 100 92 66 48 39 35 44 78 100 100 100 100 100 100 100 100 100 100 100 100 100 100 100 100 100 100 98 90
57 79 98 98 100 100 100 100 100 100 100 100 100 100 100 100 100 100 100 100 100 100 100 100 100 100 100 100 100 100 100 100 100 100 100 99 96 88 72 48 25 13 9 8
98 100 100 100 100 100 100 100 100 100 100 100 100 100 100 100 100 100 100 100 100 99 98 99 98 97 94 90 80 65 46 29 17 10 9 9 9 9 9 9 9 9 10 10
100 100 100 100 100 100 100 100 100 100 100 100 100 100 100 100 96 93 85 71 53 34 19 15 11 9 9 9 9 9 9 8 8 9 9 9 9 10 10 10 11 11 10 10
100 100 100 100 99 98 92 84 78 69 58 47 38 31 23 16 18 14 12 11 10 10 10 9 9 9 9 8 8 8 9 9 10 10 11 11 11 12 12 12 12 12 12 12
70 51 38 26 20 18 16 15 13 13 12 12 12 12 12 11 11 10 10 10 10 10 9 9 9 9 9 9 10 10 11 12 12 13 13 13 12 13 14 14 14 15 17 18
15 15 15 15 15 15 15 14 14 14 13 13 12 11 10 10 9 9 8 8 8 8 9 10 10 11 12 13 13 14 14 15 14 14 13 14 16 17 18 19 22 23 23 24

GFSNGP_500_rhum_048.txt.gz
RH
12 13 16 21 40 58 54 50 39 29 31 42 51 56 74 83 64 52 39 68 59 69 66 60 63 57 65 73 64 50 38 47 47 36 27 24 22 33 45 72 91 88 58 86
28 24 20 15 24 50 69 73 42 24 17 48 55 55 65 70 74 59 53 47 35 42 45 43 63 75 90 77 58 53 61 53 35 35 34 22 17 33 45 63 76 72 79 72
59 66 77 27 22 41 57 77 56 34 25 39 50 56 70 71 71 82 80 82 60 50 40 60 58 62 98 93 93 68 57 40 34 35 24 16 20 37 50 62 75 81 80 82
78 94 99 68 89 100 90 54 73 59 37 39 55 71 72 78 81 78 87 81 53 52 66 55 80 72 92 100 96 92 54 41 31 14 14 15 18 32 52 68 81 93 83 78
43 40 41 57 45 70 99 62 97 87 73 41 45 67 30 74 82 87 95 79 63 57 88 100 99 92 93 94 95 81 53 38 21 16 13 13 26 32 38 44 42 55 77 74
18 18 14 15 14 16 23 48 57 72 71 69 80 48 36 77 94 83 100 86 82 80 83 86 100 100 83 86 93 95 69 40 24 16 14 23 33 26 20 18 17 20 41 51
26 25 15 18 18 18 15 21 28 67 58 57 46 51 52 63 74 91 96 99 99 97 96 87 96 95 91 57 53 72 70 51 32 23 21 22 26 17 12 13 17 18 20 31
38 32 22 28 18 23 50 53 36 56 66 64 42 37 47 56 70 80 83 96 96 98 98 90 97 99 100 60 63 72 61 52 49 53 39 25 17 25 18 14 12 13 14 17
41 36 39 32 35 30 84 80 58 42 63 72 68 54 62 61 78 85 79 78 75 87 100 96 97 100 96 75 73 67 77 73 63 70 50 34 24 30 40 30 23 18 15 16
54 36 47 45 35 32 30 56 82 61 89 94 94 90 88 69 78 88 83 76 80 82 83 83 77 96 100 76 92 100 93 77 69 54 46 41 38 38 44 44 39 30 21 18
46 42 41 51 52 34 28 91 100 68 98 100 100 97 100 98 80 81 91 97 96 85 69 62 72 67 78 94 100 86 82 69 54 42 40 44 44 46 44 39 32 27 24 23
46 46 46 65 56 35 47 88 92 77 97 98 100 100 99 100 100 95 99 100 99 80 70 89 95 90 92 87 90 88 79 78 78 86 86 76 72 72 76 80 57 53 59 59
30 42 58 68 59 33 52 100 100 100 100 100 100 100 96 98 99 100 98 98 100 100 100 98 100 100 91 88 90 97 96 99 98 97 98 97 93 89 91 95 99 97 94 93
80 74 82 68 39 30 80 100 100 100 97 100 100 100 100 100 100 100 98 98 100 100 99 95 92 98 95 90 99 100 100 100 91 94 98 96 87 93 100 100 100 100 100 100
100 100 94 63 41 37 75 100 100 100 91 97 98 100 100 99 91 90 94 99 99 98 100 93 96 99 100 100 100 100 100 100 98 100 99 100 99 96 98 100 100 100 100 100
100 75 58 56 49 68 86 100 95 100 100 95 96 99 99 92 95 93 93 97 95 90 93 90 92 100 100 100 100 100 99 100 100 97 98 100 100 100 100 100 100 100 100 100
73 51 41 81 99 99 100 98 88 99 100 88 91 83 85 80 74 66 73 87 89 87 90 98 97 99 99 99 100 100 99 100 100 100 100 100 100 99 100 100 100 100 100 100
92 100 99 60 88 99 98 93 77 81 93 85 86 89 90 90 82 75 69 71 70 74 80 100 99 86 93 98 99 99 99 97 93 96 94 98 100 100 100 94 81 87 96 99
91 100 99 94 89 76 83 77 83 83 81 83 100 99 99 100 96 71 67 66 68 78 80 86 86 87 91 98 90 85 96 94 46 44 91 100 97 94 96 99 100 100 100 99
95 100 92 99 86 94 96 90 86 83 100 100 100 100 96 74 53 72 82 89 100 99 91 81 66 60 66 63 57 44 46 46 76 99 100 100 100 100 100 98 97 91 77 56
93 97 98 100 100 100 100 96 85 97 100 98 97 76 41 81 100 100 100 100 100 100 100 100 100 100 100 100 100 100 100 100 100 100 100 98 91 74 52 28 14 9 9 9
100 94 90 90 100 100 99 91 77 62 53 50 87 100 100 100 100 100 100 100 100 100 100 100 100 100 100 100 100 100 98 85 59 31 14 9 9 9 9 9 9 9 8 8
100 100 100 100 100 100 100 100 100 100 100 100 100 100 100 100 100 100 100 100 99 100 100 98 95 90 75 53 31 17 11 10 9 9 9 9 8 8 8 8 8 9 10 10
100 100 100 100 100 100 100 100 100 100 100 100 100 99 97 96 90 86 77 60 43 30 20 15 12 11 11 11 10 10 10 10 9 8 7 7 8 9 9 10 12 12 12 12
100 100 100 100 100 98 91 74 56 39 32 27 20 14 13 14 15 13 13 13 13 13 13 12 12 11 10 10 9 8 8 8 8 9 10 11 12 13 14 14 14 14 13 14
92 81 57 32 20 17 16 16 16 16 16 16 16 16 16 15 14 14 13 12 11 10 9 9 8 8 8 9 10 11 12 13 14 15 16 15 15 13 12 13 14 14 16 20
19 18 18 19 18 18 18 17 17 16 15 14 13 12 11 10 9 9 9 8 8 9 10 11 12 13 14 15 18 19 19 18 18 16 13 12 13 14 16 18 21 24 27 30

GFSNGP_500_rhum_054.txt.gz
RH
48 53 32 32 48 78 95 72 56 58 53 49 44 40 45 41 52 66 92 95 84 66 57 64 88 83 72 76 69 66 68 69 66 63 57 51 56 52 60 52 37 33 34 32
39 44 44 36 31 26 26 25 27 32 30 33 27 25 23 25 35 48 62 88 98 94 79 57 56 89 85 89 88 87 98 85 80 69 67 69 56 52 55 56 41 30 32 28
60 59 31 20 27 37 42 44 40 35 30 18 16 15 18 25 28 39 51 62 74 92 97 89 63 66 66 62 81 87 96 73 62 55 71 83 72 66 69 67 43 35 27 15
84 88 36 22 25 33 47 48 32 19 16 13 10 10 13 18 11 10 22 50 60 65 82 96 86 75 75 68 68 77 92 78 79 71 66 80 86 76 73 65 44 43 20 21
56 45 34 43 71 68 50 57 54 32 23 22 12 9 21 21 10 14 12 10 15 35 62 80 95 97 90 82 72 72 74 64 80 72 84 98 98 90 75 81 64 50 31 15
14 14 12 32 72 69 27 38 41 39 41 42 45 44 38 37 27 22 22 25 26 13 23 51 92 97 98 94 90 83 90 97 100 88 96 96 86 77 79 83 65 49 39 33
23 18 15 25 35 31 28 18 21 19 16 15 15 16 16 18 25 28 29 34 39 46 21 23 55 84 91 99 91 80 77 94 98 97 96 99 94 81 48 67 83 91 85 68
26 20 26 31 30 27 30 20 20 21 18 12 10 9 7 7 7 9 19 27 33 36 45 30 26 61 72 90 94 98 97 98 98 95 99 89 91 89 100 99 97 98 100 95
35 36 30 29 33 30 29 24 23 24 25 17 13 14 12 11 7 7 8 12 30 30 44 47 59 51 75 88 88 96 96 98 95 94 93 95 99 100 100 100 99 97 98 100
38 40 57 41 24 25 27 28 30 31 28 25 18 15 14 34 52 11 7 12 36 69 51 46 50 66 86 100 100 100 100 94 92 100 100 100 99 98 90 88 91 92 99 98
46 51 57 60 42 37 37 34 37 36 31 27 27 21 15 16 68 92 45 45 53 67 61 78 66 73 98 100 100 99 94 100 100 100 100 98 97 100 99 94 93 96 100 94
48 46 52 53 42 44 46 44 43 44 42 36 33 28 20 19 18 69 99 100 89 74 82 97 91 91 94 100 100 100 100 100 100 100 100 79 72 89 92 83 85 100 98 95
45 52 49 50 56 57 56 55 51 53 53 46 37 29 23 23 24 53 89 100 100 100 71 99 89 74 94 94 88 94 94 88 88 84 81 81 96 100 100 91 98 91 90 98
54 57 57 48 52 51 48 43 37 32 28 26 24 24 22 24 22 61 99 100 99 100 100 99 100 100 70 90 96 99 98 100 98 100 100 98 96 94 100 100 99 100 100 100
60 56 56 54 51 45 38 30 28 27 38 41 58 54 46 49 30 50 95 100 98 91 100 100 100 99 100 99 100 100 100 100 99 98 100 100 99 100 100 100 100 100 100 100
48 52 60 67 52 45 55 72 94 82 71 74 87 74 54 94 63 81 90 100 100 100 83 89 95 98 99 100 100 100 100 100 100 100 100 100 99 100 100 100 100 100 100 100
32 35 51 44 43 46 84 85 88 95 71 78 97 72 96 90 67 94 100 100 100 98 100 100 100 100 100 100 100 100 100 100 100 100 100 100 100 100 100 100 100 98 98 100
44 45 47 49 46 67 62 61 62 73 73 65 76 95 100 99 83 86 96 98 100 100 100 100 100 100 100 100 100 100 94 88 96 99 100 100 100 100 100 100 100 94 83 78
81 79 81 82 85 76 64 50 50 62 100 100 91 100 96 85 84 83 89 93 96 100 100 100 100 100 96 97 96 96 93 91 81 80 85 89 90 90 92 95 96 96 96 90
66 66 100 100 92 86 74 74 87 95 100 100 100 100 99 92 94 94 88 81 79 85 90 94 94 89 88 91 92 69 92 98 100 100 100 100 100 100 98 95 92 90 89 85
72 94 100 100 100 100 100 100 100 100 100 100 100 91 86 85 90 97 100 100 88 79 90 81 76 80 85 86 87 92 98 100 95 91 92 95 93 94 92 87 80 65 42 21
100 100 100 100 100 100 100 100 100 100 100 100 100 100 100 100 100 100 100 99 100 100 100 100 100 100 100 100 100 100 100 100 98 94 91 82 66 44 22 16 14 13 13 13
100 100 100 100 100 100 100 100 100 100 100 100 100 100 100 100 100 100 100 100 100 100 100 100 100 100 100 98 91 78 59 39 24 17 15 15 15 14 14 14 13 11 9 8
100 100 100 100 100 100 100 100 100 100 100 100 100 100 100 100 100 100 99 95 87 73 56 41 28 20 17 16 16 16 16 16 15 14 13 12 11 10 9 8 8 9 11 12
100 100 100 100 100 100 100 100 100 100 97 87 73 54 29 22 22 20 18 18 18 18 18 18 17 16 15 14 13 12 11 10 9 7 7 7 8 10 12 13 13 14 15 14
100 100 100 100 92 77 57 38 26 22 21 21 20 20 20 19 19 19 18 17 16 15 14 13 11 10 9 8 8 8 8 9 10 12 13 14 15 16 17 17 17 16 16 15
42 28 23 22 23 24 24 23 22 21 20 18 17 16 15 13 12 12 11 10 10 9 9 9 10 10 11 12 14 15 16 17 18 18 18 18 18 18 17 16 16 16 17 18

GFSNGP_500_rhum_057.txt.gz
RH
100 86 87 100 89 47 61 88 100 99 99 97 92 84 94 84 75 81 62 89 82 79 75 58 59 63 59 50 57 56 50 56 62 51 55 58 56 57 57 52 56 50 53 49
60 59 86 99 72 30 43 64 64 84 96 99 78 59 50 35 36 35 34 42 82 91 83 83 73 63 72 70 74 77 69 60 72 63 60 64 68 68 66 60 57 51 50 52
94 78 59 49 59 66 46 42 45 60 92 58 32 25 21 23 20 19 22 30 36 63 78 85 88 81 76 70 65 56 58 64 62 75 66 61 69 63 70 74 76 64 62 68
100 100 100 87 57 60 60 64 68 57 50 35 30 24 23 18 13 10 10 11 13 26 57 79 81 83 83 81 70 62 61 67 70 73 77 72 78 62 74 68 63 72 79 81
77 57 78 78 65 63 77 78 52 54 20 22 15 17 28 7 14 13 9 8 10 7 6 15 45 62 65 77 82 76 68 72 84 89 98 86 67 65 78 68 61 87 84 85
99 100 100 98 88 66 64 83 60 32 34 27 22 30 29 26 25 24 22 22 20 21 21 20 12 9 11 24 62 76 86 82 81 76 76 76 72 87 89 88 77 89 66 75
33 53 31 28 20 12 25 70 28 43 23 16 22 20 19 16 13 12 13 14 15 12 11 12 25 29 20 16 30 66 87 97 93 97 97 94 91 85 92 96 85 70 78 92
34 74 21 57 31 16 37 47 48 25 20 18 15 12 10 10 8 8 6 6 5 5 5 6 12 28 35 29 20 30 78 97 100 100 98 95 97 93 100 100 96 100 91 99
32 39 44 51 38 59 60 52 37 21 22 23 20 15 12 10 9 9 8 6 5 4 4 4 5 11 30 43 40 47 91 100 100 100 100 96 94 100 100 92 93 96 100 96
62 59 89 44 31 49 37 32 37 33 26 22 20 20 16 13 11 9 10 9 22 18 7 4 4 5 14 37 54 61 75 100 100 100 100 100 100 100 100 100 100 98 97 99
93 100 80 55 40 36 39 33 28 24 23 26 26 27 26 23 20 17 13 11 15 28 53 42 11 9 24 38 47 72 85 92 100 100 100 98 98 96 98 98 95 99 100 95
91 76 80 78 39 46 48 35 34 34 31 27 27 28 24 21 20 20 17 11 10 14 25 46 90 46 47 49 45 53 62 81 85 98 99 96 85 92 98 99 98 100 100 100
74 87 67 56 42 55 50 41 40 36 34 33 33 31 27 26 25 21 17 14 12 11 17 62 100 92 69 87 95 67 77 74 69 62 100 100 92 99 99 96 100 100 100 100
66 64 54 59 45 48 52 50 48 50 48 44 40 34 30 25 22 20 17 17 16 12 15 84 97 94 100 95 97 100 100 97 96 99 97 87 96 96 97 100 99 99 100 100
69 64 50 51 56 55 53 52 44 43 39 36 28 22 22 21 21 21 23 22 36 32 36 56 100 100 99 100 95 99 99 100 100 96 99 100 99 99 100 99 100 98 100 100
59 52 48 44 36 37 43 54 63 56 35 48 57 71 61 66 69 71 82 81 100 71 74 79 97 100 100 88 98 99 100 100 100 100 100 98 100 98 99 100 100 100 100 100
53 43 38 33 30 29 31 37 37 40 45 65 58 64 67 60 58 92 83 92 76 73 92 93 100 100 100 97 100 100 99 100 100 100 100 100 100 100 100 100 100 100 100 100
48 41 42 33 24 27 42 41 36 37 47 56 49 56 86 98 90 83 97 100 99 100 94 99 100 100 100 100 100 100 100 100 100 100 100 100 100 100 98 100 97 95 97 99
67 70 68 62 65 67 89 92 82 67 56 55 59 98 100 100 100 99 100 100 100 100 100 98 94 96 98 99 100 100 100 100 98 97 99 100 94 82 81 85 96 99 99 99
52 54 65 67 65 80 100 100 92 87 88 88 99 100 100 100 100 100 100 100 100 100 93 94 98 98 96 83 77 85 96 97 88 84 85 83 81 80 83 83 88 89 90 92
61 56 58 61 75 85 96 100 100 100 100 100 100 100 100 100 100 100 100 100 100 100 100 100 100 100 100 100 99 86 89 91 94 94 98 94 93 94 96 96 96 94 86 61
57 56 68 76 93 100 100 100 100 100 100 100 100 100 100 100 100 100 100 100 100 100 100 100 100 100 100 100 100 99 94 98 99 100 98 93 86 76 60 38 21 16 16 16
75 94 100 100 100 98 100 100 100 100 100 100 100 100 100 100 100 100 100 100 99 99 100 100 100 100 100 98 89 77 59 39 27 19 18 17 17 17 16 15 15 14 11 9
100 100 98 100 100 100 100 100 100 100 100 100 100 100 100 100 98 96 90 80 65 46 31 26 23 21 20 19 19 19 18 18 18 18 17 15 14 11 9 8 8 7 8 9
95 100 100 100 100 100 100 100 100 99 92 78 61 43 25 24 23 22 22 21 21 21 21 20 20 19 19 18 17 16 15 13 12 10 9 8 8 8 9 10 10 10 11 11
100 100 100 98 90 72 52 36 26 25 25 25 25 25 25 24 23 22 21 20 19 17 16 14 13 12 11 11 10 10 10 10 10 10 11 12 12 12 11 11 11 11 11 11
41 30 26 26 27 29 30 31 30 29 28 27 25 23 20 16 14 13 11 10 10 10 10 10 11 12 12 13 13 12 12 13 13 14 14 14 13 12 12 12 12 13 14 14

GFSNGP_500_rhum_060.txt.gz
RH
33 50 99 100 97 96 96 98 97 97 98 98 98 98 99 92 76 89 94 78 85 86 84 80 59 45 30 31 38 54 55 50 52 52 47 48 52 50 49 50 49 53 45 51
24 56 64 90 95 99 92 99 100 100 98 99 98 95 93 98 100 99 91 66 78 73 57 64 81 65 69 68 54 40 36 40 63 66 69 63 56 55 59 60 57 48 51 61
85 42 42 74 96 97 100 100 96 98 100 99 95 100 100 86 97 84 70 36 31 32 36 42 60 80 72 76 86 79 66 52 52 55 58 68 72 69 66 67 69 68 49 47
100 97 76 52 41 61 96 90 97 95 87 83 79 71 78 43 44 30 23 20 20 19 19 37 51 40 53 60 80 75 80 79 74 67 61 58 58 71 78 69 68 85 84 55
100 100 100 96 99 84 72 96 100 100 99 88 74 69 56 54 37 26 16 9 7 7 7 8 12 18 26 39 58 68 68 64 74 82 74 65 63 71 100 97 94 97 63 60
100 100 100 100 100 98 100 100 99 93 86 68 48 52 36 26 19 12 9 7 10 12 8 7 10 10 8 6 7 12 30 33 38 39 47 68 69 71 79 73 67 63 64 53
97 100 100 100 100 97 100 96 74 43 29 33 45 44 46 30 22 18 13 11 10 9 8 9 9 10 12 12 12 11 9 9 20 22 28 44 67 72 73 73 83 93 99 81
70 100 99 98 100 100 76 61 44 31 30 30 50 38 23 22 15 13 12 10 8 8 6 6 5 5 5 5 9 11 12 14 14 24 29 33 64 87 80 94 100 100 100 95
40 30 43 44 55 49 36 29 42 64 80 55 47 21 20 20 15 15 13 11 10 9 8 6 5 5 4 4 4 4 8 18 21 27 55 79 89 100 100 100 100 100 100 100
66 41 45 95 68 41 65 50 75 99 95 65 25 26 28 23 20 19 16 13 11 9 8 7 6 6 6 6 6 4 4 7 32 38 49 81 100 99 100 100 99 99 97 99
90 100 68 63 100 52 55 67 66 63 49 36 30 35 27 25 24 20 18 16 14 12 10 7 6 6 5 6 10 19 6 4 11 44 61 82 100 100 100 100 100 92 84 99
100 100 100 100 100 81 54 52 55 48 43 37 32 28 26 24 20 18 18 18 17 14 12 10 9 7 7 8 11 20 43 22 7 17 44 68 87 96 94 95 98 98 92 96
100 100 97 81 69 66 71 59 45 40 41 37 30 27 25 25 26 23 20 21 19 18 14 12 11 9 8 9 16 53 96 79 47 33 44 48 55 85 96 100 100 89 100 87
87 91 78 60 52 66 60 55 44 40 39 42 39 36 35 34 31 30 27 22 18 16 14 13 12 12 11 12 16 76 100 92 98 48 66 64 100 100 100 88 95 93 100 99
90 78 71 71 59 52 54 52 47 48 45 41 37 31 27 25 22 19 16 16 19 23 25 24 21 30 48 51 41 63 100 100 100 100 100 100 100 100 100 100 100 100 100 99
94 72 77 75 69 62 54 42 34 30 28 26 25 25 24 24 34 46 54 46 47 42 58 61 83 86 84 95 99 79 99 99 100 100 100 100 95 100 100 98 100 100 100 100
74 72 58 48 45 42 37 34 32 26 19 19 22 28 38 44 56 47 50 64 69 72 88 85 92 98 100 100 100 100 100 100 100 100 98 98 100 100 99 97 100 100 100 100
64 57 54 48 47 44 45 40 32 37 59 79 62 56 40 39 50 46 50 63 89 95 89 99 100 100 100 100 100 100 100 100 100 100 100 100 100 100 100 99 100 100 100 100
72 67 65 67 68 65 72 67 63 58 80 94 93 85 58 49 52 57 85 100 100 100 100 100 100 100 100 100 100 100 100 100 98 96 96 90 92 92 93 93 96 96 96 98
85 75 66 65 58 54 61 63 64 58 78 91 92 96 91 81 87 100 100 100 100 100 100 100 100 100 100 100 100 100 99 98 98 100 100 99 91 88 91 91 94 96 96 96
76 83 88 79 67 52 51 53 58 72 82 91 97 100 99 99 100 100 100 100 100 100 100 100 100 100 100 100 100 100 100 100 100 100 100 99 98 96 95 91 85 77 65 46
82 68 62 57 52 55 65 78 90 93 98 99 98 98 100 100 100 100 100 100 100 100 100 100 100 100 100 99 98 98 98 96 92 86 78 64 49 40 35 28 21 19 18 18
60 67 71 73 77 92 100 100 100 100 100 99 100 100 100 100 100 100 100 98 97 92 84 71 57 43 33 28 24 21 20 20 20 20 20 20 20 20 19 18 16 14 13 12
87 98 100 100 100 100 100 100 100 100 100 100 100 100 100 89 72 56 39 31 27 25 25 24 24 23 23 23 23 22 22 21 20 18 17 15 14 13 12 10 9 9 9 9
100 100 100 100 100 100 100 100 100 98 86 64 42 29 27 28 28 28 28 28 27 26 26 24 23 22 21 19 17 15 13 12 10 9 8 9 9 10 10 11 11 12 11 11
100 100 100 97 84 64 44 33 30 31 32 34 34 33 33 32 30 29 27 25 22 20 17 14 12 10 9 8 7 7 9 10 12 12 12 12 13 13 13 13 13 12 11 10
36 27 28 32 36 38 39 39 38 37 36 34 33 30 26 21 16 12 10 7 7 6 7 7 9 10 13 16 17 18 17 16 16 16 16 16 16 15 14 13 12 11 11 11

GFSNGP_500_rhum_063.txt.gz
RH
5 35 65 100 100 99 97 97 95 100 97 96 98 96 94 95 94 79 80 84 100 93 96 78 63 60 62 67 77 80 66 76 74 75 57 50 46 43 45 51 56 52 54 57
18 34 51 93 100 100 100 99 96 98 97 98 98 98 97 87 79 72 73 88 100 100 98 98 96 62 51 62 61 52 76 65 69 50 56 63 63 68 61 61 56 60 60 67
16 20 35 46 71 100 98 97 98 99 98 100 98 98 94 93 100 99 95 88 94 91 93 87 85 81 60 40 40 56 58 69 78 71 64 55 61 67 76 84 80 72 69 74
26 67 66 28 58 76 99 100 100 99 97 100 94 97 95 97 90 98 94 99 83 82 73 45 29 32 34 33 32 33 36 36 42 65 70 74 72 73 81 76 65 74 66 61
19 100 91 83 73 43 56 100 100 100 87 89 98 86 90 72 83 79 77 47 39 43 45 33 20 18 17 23 36 36 34 28 25 29 52 64 62 62 75 76 64 61 66 73
16 99 94 100 74 88 77 61 47 62 88 88 84 85 91 73 76 75 64 54 77 64 30 11 6 6 6 6 8 10 9 10 12 12 16 33 41 40 40 52 61 70 67 64
6 81 90 100 100 100 100 79 63 51 56 53 54 76 91 77 61 53 31 25 13 9 7 7 8 8 9 15 16 13 12 12 14 14 13 11 9 11 23 29 24 40 73 75
35 10 73 100 98 100 95 95 100 100 98 90 78 55 36 33 31 27 30 21 14 11 10 9 8 8 7 7 7 7 8 9 10 12 13 10 10 10 9 11 33 42 64 81
76 67 27 65 93 98 100 95 98 100 98 81 55 45 31 32 42 36 22 18 20 18 14 12 9 8 7 6 5 4 4 4 4 4 4 6 7 10 12 13 19 62 92 100
84 86 61 75 93 91 88 87 95 94 87 60 29 49 96 76 42 24 20 22 21 17 15 13 11 9 8 7 6 5 4 4 3 3 3 4 3 5 13 20 24 44 71 100
98 100 97 85 85 100 74 73 74 42 29 30 36 100 100 86 38 29 31 25 22 20 17 15 14 12 10 9 8 7 6 5 4 4 4 4 4 6 6 12 38 53 68 89
95 100 100 100 100 89 98 100 88 50 75 77 88 100 85 47 33 33 27 24 22 20 17 16 14 12 10 10 9 8 7 7 5 4 4 4 18 73 45 10 7 28 55 65
100 100 100 100 100 100 100 100 69 56 54 51 44 41 40 38 42 36 30 28 26 23 20 16 14 13 12 11 10 10 8 7 6 6 5 7 33 61 84 37 20 20 36 72
100 98 100 99 99 100 99 95 80 72 58 51 49 50 47 42 41 38 36 32 26 23 21 18 16 15 13 13 14 15 14 14 14 17 12 21 84 86 100 100 100 77 72 84
86 85 79 82 88 84 72 70 70 66 64 61 57 53 50 44 38 33 28 25 22 19 18 18 22 28 27 25 33 36 52 84 95 94 85 98 100 100 100 100 100 100 100 96
89 88 83 71 66 73 68 65 65 65 63 55 42 35 31 27 23 20 17 18 19 27 45 46 42 41 48 52 60 65 85 91 100 100 100 100 100 100 100 100 100 100 100 99
97 97 90 84 89 84 76 70 62 46 37 34 32 26 17 24 39 33 26 33 30 35 48 42 57 60 69 72 68 75 97 100 100 100 100 100 100 100 100 100 100 100 100 100
97 98 99 97 87 71 55 48 44 44 43 39 31 38 48 68 69 59 64 57 44 41 39 44 73 84 84 85 79 79 98 100 100 100 100 100 100 100 100 100 100 100 100 100
98 96 85 71 66 64 58 57 59 63 64 64 60 52 52 61 82 88 84 83 61 44 52 80 88 88 90 95 97 98 100 100 97 97 100 100 100 100 100 100 100 98 94 96
95 98 97 94 83 75 66 58 55 51 52 54 55 59 62 76 89 85 84 86 86 88 91 92 94 93 98 100 100 100 100 100 100 100 100 100 100 99 98 97 97 99 98 95
71 80 100 92 78 69 66 63 58 56 51 48 49 53 71 83 89 90 89 89 99 99 99 98 99 100 100 100 100 100 100 99 98 97 96 92 82 69 59 55 50 43 33 26
65 70 93 92 74 60 56 58 60 57 58 73 96 100 100 99 98 97 96 96 96 97 99 99 98 93 86 73 60 49 39 35 31 26 24 23 22 22 22 21 20 20 18 16
82 69 68 70 60 60 74 89 92 97 99 100 100 100 99 100 97 95 93 91 84 72 54 40 32 28 27 28 28 27 27 26 26 24 23 21 19 17 15 14 12 11 10 10
64 64 70 81 97 98 100 100 100 100 100 100 100 100 96 85 73 58 38 32 30 31 32 32 32 31 30 27 24 22 19 17 16 14 12 11 9 9 8 8 9 10 10 10
100 100 100 100 100 100 100 100 96 78 56 45 37 32 32 35 36 37 37 36 33 30 26 22 19 16 13 11 9 8 7 7 6 7 8 9 12 13 13 13 13 13 13 13
99 96 89 76 56 38 30 31 35 38 41 43 42 41 39 36 33 30 26 21 16 12 9 7 6 6 6 7 7 8 9 10 12 15 16 16 17 16 16 15 15 15 14 14
29 31 35 38 42 45 47 47 46 42 40 38 35 32 27 21 15 10 8 8 7 7 7 7 7 8 9 10 12 15 19 21 20 19 18 18 17 17 17 16 16 14 13 12

GFSNGP_500_rhum_066.txt.gz
RH
8 32 46 72 100 94 94 100 98 99 95 97 98 97 100 96 96 81 100 98 87 95 79 97 96 88 78 72 79 95 98 88 75 76 64 73 62 45 40 39 43 50 51 52
3 6 16 54 93 96 95 96 97 100 97 95 98 95 96 99 94 99 100 88 91 98 98 86 85 84 79 70 72 79 73 83 100 90 96 98 95 92 76 58 56 50 54 55
4 8 9 12 97 100 100 100 100 99 100 98 100 98 83 96 98 98 99 98 96 98 97 96 97 91 81 74 68 60 55 63 65 69 82 100 96 96 92 78 72 74 76 69
4 6 21 26 51 74 99 100 96 98 99 97 97 98 98 100 100 98 99 98 99 98 96 100 98 100 96 85 69 60 54 49 40 38 50 71 78 76 87 80 75 80 76 73
6 5 12 40 94 62 98 92 94 100 98 99 98 88 97 94 100 100 99 98 97 97 98 98 98 98 92 68 35 28 27 26 27 36 38 40 43 38 40 59 79 82 80 86
4 4 3 92 100 98 45 60 86 98 97 98 94 81 84 92 100 100 100 97 95 97 97 92 65 52 46 54 38 17 16 15 14 13 14 12 10 11 23 42 58 72 72 84
4 3 3 71 100 100 100 78 78 82 83 69 64 61 75 95 100 99 96 95 94 91 89 87 68 64 66 56 31 12 9 12 12 10 10 13 7 5 4 5 7 28 62 69
25 4 3 39 100 100 100 100 100 94 100 98 93 77 92 99 100 99 91 58 46 46 65 66 58 31 11 11 11 10 9 10 12 15 19 20 16 14 14 15 17 19 18 12
74 68 23 16 97 98 99 100 100 100 100 100 100 100 100 100 98 84 44 31 25 24 24 21 16 11 9 9 9 8 7 7 6 5 5 5 5 5 5 4 4 4 6 7
98 78 50 86 74 96 100 100 100 100 99 100 100 100 95 96 80 37 29 25 25 26 30 25 16 13 12 11 9 8 8 7 6 6 5 5 4 4 4 4 3 3 3 3
91 90 79 80 79 95 89 99 100 100 99 98 94 93 83 74 54 34 33 47 82 50 25 19 20 19 16 14 13 11 10 8 7 6 6 5 5 4 4 4 3 3 3 3
88 83 100 100 87 94 100 100 100 100 94 70 72 68 64 69 61 36 95 100 87 45 25 27 24 21 20 18 14 13 12 10 8 7 7 6 5 5 4 4 4 4 4 5
98 100 100 100 100 86 85 100 100 100 99 100 87 51 65 70 79 92 92 71 33 29 30 26 24 20 17 16 15 13 11 10 9 9 8 7 6 5 5 4 5 5 4 26
100 100 100 100 100 100 100 99 95 100 93 87 54 47 46 52 51 46 43 40 36 33 30 24 21 20 18 16 14 13 13 13 12 16 19 21 20 22 41 72 48 32 18 36
94 94 85 80 95 98 97 98 100 98 90 80 70 64 63 58 52 47 43 38 34 30 27 23 21 18 16 14 14 20 26 24 25 38 43 42 56 70 100 100 100 100 100 99
99 96 97 90 80 78 77 77 80 86 89 68 59 54 51 49 45 42 39 34 28 22 19 15 13 16 19 18 35 37 42 45 49 48 48 48 71 71 99 98 98 100 100 100
86 81 99 100 93 86 83 75 75 74 71 68 59 59 52 43 36 32 28 21 28 34 32 26 26 36 32 32 32 34 59 66 69 70 58 64 84 69 76 84 91 92 98 100
76 69 75 84 92 89 91 94 96 92 80 64 51 46 43 41 36 31 33 37 47 44 53 65 68 60 46 36 30 37 75 76 73 73 80 87 94 98 95 92 84 96 98 99
85 80 75 75 84 88 86 87 87 78 66 57 53 51 43 39 52 53 51 48 44 50 68 76 73 76 84 87 84 83 85 82 79 83 90 93 94 96 96 95 93 92 94 97
100 100 100 100 100 100 97 95 92 85 72 62 50 46 46 47 46 45 48 52 68 86 91 82 81 73 86 95 96 97 95 92 89 90 92 94 95 95 93 91 90 87 84 77
72 87 85 76 57 57 74 90 92 77 64 58 55 50 49 50 55 68 92 100 100 99 93 91 87 86 89 90 88 89 89 86 80 72 65 55 46 41 36 31 29 26 25 24
70 70 66 60 62 80 99 99 95 81 62 67 75 85 96 100 100 100 100 100 100 100 100 100 96 89 81 73 64 54 42 34 30 30 30 30 29 28 27 25 23 21 18 15
76 81 83 84 85 77 73 74 77 92 99 100 100 100 100 100 100 100 100 96 88 75 61 51 43 37 34 34 34 33 33 31 28 23 19 16 13 11 9 8 7 7 7 7
100 100 100 100 100 100 100 100 100 100 100 100 100 100 89 73 52 40 38 38 38 38 38 37 36 33 29 25 20 16 12 10 8 7 6 6 6 6 6 7 8 9 11 13
100 100 100 100 100 100 100 100 97 84 56 38 34 38 45 46 44 43 42 39 35 32 28 24 19 15 12 9 8 7 7 7 7 7 8 9 10 12 14 16 17 18 17 16
88 64 51 44 39 36 34 38 43 48 51 51 50 48 46 43 41 38 32 24 17 13 10 9 8 8 8 8 8 8 8 8 9 11 14 17 20 21 20 20 19 18 18 17
36 43 48 52 54 53 53 53 52 52 53 53 51 48 45 37 25 14 11 10 10 9 8 8 7 8 9 9 10 12 14 16 20 23 26 24 22 22 20 19 19 19 18 16

GFSNGP_500_rhum_069.txt.gz
RH
36 42 40 33 93 100 100 100 97 100 97 95 98 100 100 99 87 68 79 85 92 88 83 89 95 98 100 98 98 88 95 95 100 92 80 79 80 76 69 48 40 38 39 43
14 20 25 31 92 100 100 100 100 100 92 92 99 98 99 99 98 99 96 100 84 70 78 95 94 94 98 98 93 89 83 83 87 98 94 88 84 99 93 96 96 87 60 55
13 11 6 8 42 96 96 100 100 94 93 89 87 98 98 97 98 100 99 98 100 99 94 80 77 78 88 93 80 80 89 85 86 90 97 97 94 90 96 94 92 97 98 96
11 11 7 7 7 39 91 92 100 100 99 84 93 97 98 95 97 98 99 100 100 100 100 99 81 75 90 91 86 82 83 76 74 78 70 75 85 91 91 90 90 96 92 96
8 5 8 15 8 24 38 87 92 100 99 100 85 95 99 99 99 98 99 98 99 97 98 99 100 99 98 98 100 96 83 72 61 63 64 60 57 46 46 59 92 100 98 86
9 7 5 16 8 27 13 23 80 95 93 85 100 97 99 100 100 99 98 98 97 98 98 98 97 94 95 99 100 94 65 60 58 58 51 37 35 41 38 33 41 53 54 51
5 5 5 10 9 33 41 33 40 61 95 99 100 100 100 99 99 100 98 100 100 98 98 98 98 98 98 98 96 85 73 66 58 56 48 31 15 8 11 11 15 12 14 8
6 4 4 7 6 21 89 77 99 78 70 92 99 95 97 98 98 100 99 99 98 98 98 98 96 94 96 99 92 86 79 56 37 24 19 14 11 10 9 11 12 13 25 27
55 12 8 9 6 8 78 100 92 81 91 74 80 95 100 93 100 98 100 100 100 98 87 51 34 36 41 46 55 74 73 52 30 13 10 9 8 7 7 6 6 6 6 7
90 46 37 30 11 6 95 100 99 71 100 100 100 100 100 100 94 98 98 97 96 93 70 35 18 14 15 18 19 20 18 13 11 10 10 9 8 7 7 6 6 6 5 5
80 64 68 60 48 30 71 100 100 93 82 96 100 100 100 100 98 93 86 81 80 76 64 57 46 35 31 35 28 22 18 16 14 12 12 11 10 9 8 7 6 6 5 5
85 71 81 78 70 74 100 100 100 100 100 96 100 100 100 99 90 75 70 64 61 60 54 40 46 61 63 60 46 23 22 18 16 14 12 11 10 9 8 6 6 5 5 4
100 98 100 90 100 98 86 99 100 100 100 100 98 100 97 86 67 68 54 46 42 46 52 50 84 74 43 29 24 21 19 17 14 12 11 10 8 7 7 8 7 6 6 6
97 100 100 99 100 94 100 86 100 100 100 98 96 91 86 89 93 62 54 46 41 38 39 39 36 30 26 23 21 19 17 16 15 14 13 12 10 10 11 14 18 16 24 28
100 100 97 99 99 100 100 96 95 98 100 99 100 98 85 72 59 43 38 37 37 37 37 37 34 32 29 27 25 22 19 15 13 12 12 13 20 24 30 32 26 25 34 34
94 89 92 90 75 76 93 98 100 99 100 98 100 98 88 74 59 56 50 44 38 36 38 38 36 33 26 21 17 14 13 14 16 24 26 29 38 48 52 50 49 50 45 49
100 92 81 70 73 70 70 75 79 82 81 77 72 70 70 64 59 53 53 50 48 43 40 34 28 22 22 27 33 41 44 47 39 31 30 27 30 48 61 62 61 63 72 74
84 81 77 81 82 83 81 81 76 75 78 81 82 84 84 83 71 58 52 48 44 39 34 30 31 33 38 40 47 62 63 63 62 70 78 72 70 68 68 67 75 80 77 76
86 80 81 79 80 85 86 91 98 100 100 97 94 89 83 76 68 60 53 44 34 30 38 43 44 46 46 54 74 79 78 74 68 71 84 86 83 81 81 80 82 82 79 77
80 87 93 94 92 93 98 100 98 96 95 96 97 96 90 76 60 49 43 40 39 42 42 43 52 72 95 99 92 86 79 76 73 73 75 77 77 74 72 67 62 56 49 38
36 36 39 42 51 58 57 60 60 53 55 63 82 93 88 75 60 50 47 47 55 63 72 83 95 100 100 100 100 97 91 85 82 78 70 60 50 43 36 31 30 30 30 30
49 52 54 57 63 69 69 67 68 69 75 82 81 79 77 70 72 78 84 91 99 100 99 98 99 99 97 91 81 68 55 43 37 34 33 32 31 29 26 22 18 15 12 10
66 72 71 78 80 80 82 84 86 87 89 91 95 98 100 98 96 95 96 96 92 85 76 66 57 50 43 39 38 37 34 31 27 23 20 17 14 11 9 8 7 6 6 6
92 92 95 99 100 100 100 100 100 100 100 100 100 100 100 93 74 53 42 42 45 47 47 46 43 39 35 31 25 20 15 12 10 9 8 8 8 8 8 8 8 9 10 11
100 100 100 100 100 100 100 100 98 94 79 63 54 51 53 58 59 56 53 50 47 45 42 38 30 21 15 12 10 10 9 8 8 8 8 8 8 9 10 12 13 17 19 20
100 99 86 62 42 39 43 50 55 59 60 59 58 57 55 54 54 52 49 42 32 22 16 13 12 11 10 10 9 8 8 8 8 10 11 13 15 18 22 24 24 24 22 22
42 49 55 61 67 72 75 76 77 76 74 69 62 54 43 32 23 17 14 13 13 12 12 11 11 10 10 11 11 11 12 12 14 17 22 27 29 29 27 25 24 25 24 24

GFSNGP_500_rhum_075.txt.gz
RH
100 100 100 99 86 59 100 100 100 99 91 85 98 100 100 98 90 93 100 99 100 90 90 99 99 95 94 91 94 96 94 92 88 94 89 81 82 86 88 83 64 55 52 42
100 84 87 100 100 88 74 100 100 95 100 77 94 94 99 99 97 99 95 99 100 100 94 98 99 100 100 97 96 98 97 98 97 95 93 92 90 81 75 83 87 86 84 84
89 54 67 72 83 83 45 67 99 96 85 93 94 95 99 96 99 94 99 99 98 99 100 100 100 98 96 91 94 93 97 98 98 95 82 81 81 76 77 78 77 74 73 69
93 59 66 74 61 47 40 26 42 98 82 97 94 94 99 98 99 99 99 98 98 99 96 97 95 92 95 95 96 88 98 95 97 97 94 83 85 80 76 74 72 71 70 68
78 89 71 65 64 30 18 15 17 41 75 100 100 98 96 96 98 95 99 99 100 92 98 98 96 99 97 96 98 94 92 96 97 100 93 85 84 88 84 84 80 81 84 74
72 71 57 58 64 35 17 11 8 10 58 97 97 98 98 98 99 99 97 98 96 97 98 98 99 98 94 83 79 78 96 98 97 92 100 95 80 81 96 90 93 88 80 79
57 47 30 44 78 54 21 14 9 9 13 41 65 96 100 100 98 100 99 100 98 96 96 98 99 98 100 98 99 98 80 91 88 99 99 99 97 100 98 100 96 88 83 70
50 31 37 52 72 53 19 12 10 15 25 29 38 91 100 100 100 100 100 100 100 99 97 95 95 98 98 99 98 99 100 99 100 100 100 97 98 98 95 94 87 74 72 69
34 51 51 43 53 34 10 7 8 17 64 38 41 95 100 100 100 100 100 100 100 100 100 100 100 99 98 98 98 98 98 98 98 98 99 96 89 70 44 34 28 25 23 20
92 100 60 37 24 17 7 6 6 17 74 91 100 96 100 100 100 100 100 100 97 96 94 97 98 98 99 97 96 97 99 98 97 95 86 67 56 59 52 44 39 30 22 19
100 100 100 95 59 31 10 7 8 10 76 100 98 100 100 100 100 100 100 100 100 100 100 98 94 94 96 93 86 86 94 96 94 94 83 77 75 66 43 38 33 29 28 23
100 100 100 100 96 75 44 30 19 10 15 96 99 100 100 100 100 100 100 100 100 100 99 99 96 85 79 72 66 58 56 44 36 28 25 26 31 34 32 30 27 24 21 18
100 99 97 88 97 88 78 77 66 52 68 68 100 100 100 100 100 100 100 100 98 100 100 100 100 93 71 50 42 38 35 30 26 26 27 27 27 25 23 22 21 19 19 17
100 100 96 83 88 86 96 84 86 87 63 84 95 98 100 100 100 100 100 100 94 84 82 76 62 50 44 41 38 33 30 27 26 25 24 23 23 24 24 23 23 21 18 16
100 100 100 100 100 100 94 93 93 84 65 72 73 97 96 95 99 97 83 80 75 64 59 50 44 39 34 35 36 33 33 32 30 30 31 31 31 31 29 27 24 20 17 15
100 100 97 94 89 98 89 82 80 86 76 70 64 72 69 72 68 73 68 62 59 57 49 49 50 44 52 58 55 49 42 34 32 30 33 36 39 38 32 28 23 20 20 20
78 69 71 73 73 79 67 69 61 48 46 46 54 59 53 55 59 66 55 52 60 65 60 59 57 54 61 64 63 59 54 53 49 52 52 47 39 32 29 28 28 26 28 33
62 67 72 62 52 49 48 44 49 50 47 46 41 43 45 45 49 47 47 54 54 56 61 68 73 77 78 75 75 75 73 68 59 50 42 37 35 36 38 39 42 50 65 85
56 62 59 61 60 55 52 50 52 55 55 50 52 54 57 60 60 64 70 75 81 86 87 93 98 95 91 84 79 74 70 62 53 47 44 45 51 56 64 70 80 96 100 99
72 75 77 75 76 72 67 70 65 71 71 74 76 76 77 78 79 83 84 85 88 94 100 100 100 100 100 99 94 85 75 68 69 72 79 85 91 95 95 93 88 84 80 77
65 56 54 53 51 48 47 50 49 48 52 57 58 58 58 55 54 57 64 69 68 70 83 94 96 96 94 96 98 97 95 95 94 93 90 84 75 66 58 51 48 46 43 39
48 48 47 49 51 51 53 60 64 70 76 80 83 85 88 92 97 100 100 100 100 100 100 100 100 100 100 100 97 93 87 77 66 62 61 60 56 50 44 38 34 31 28 25
54 55 56 62 75 88 96 97 95 95 98 99 100 100 100 100 100 100 100 98 98 98 97 96 93 89 86 85 83 81 79 73 64 56 49 45 41 36 30 25 20 17 14 12
89 95 99 100 100 100 100 100 100 100 100 100 100 100 98 96 93 92 90 90 90 90 91 91 91 90 88 85 80 74 68 60 48 37 29 23 18 14 13 12 11 10 10 9
75 58 48 50 48 47 50 53 55 58 60 63 67 72 80 91 97 99 99 98 96 93 89 83 76 67 57 47 37 29 22 17 14 14 13 12 11 11 11 10 10 11 11 11
63 66 70 74 76 78 80 84 90 94 96 97 95 92 90 85 80 75 68 60 52 42 32 25 20 16 15 14 13 12 12 11 10 10 11 12 14 16 17 18 19 19 20 22
70 77 83 93 98 95 90 85 79 67 54 42 32 26 22 20 18 17 17 16 15 14 13 12 11 10 10 10 11 12 13 14 17 20 22 24 24 24 25 27 29 29 30 30

GFSNGP_500_rhum_078.txt.gz
RH
22 77 100 100 98 78 54 50 83 96 100 91 87 93 99 100 91 79 78 77 85 98 98 91 96 98 93 74 88 98 97 100 92 84 79 74 81 84 81 79 66 44 43 41
18 100 100 100 100 98 70 52 83 100 100 94 86 81 96 98 98 94 88 89 96 96 96 97 97 97 91 82 98 97 92 96 98 82 87 90 94 86 80 78 71 78 86 86
60 98 100 99 96 99 94 86 55 91 100 100 100 88 95 96 94 98 100 92 91 90 100 98 97 97 93 99 99 96 97 90 93 97 97 95 96 92 87 82 74 71 68 66
92 97 96 77 68 72 76 80 79 50 86 98 99 94 98 97 93 98 98 98 67 79 85 100 92 91 100 100 98 97 97 97 97 97 98 97 97 84 83 82 74 68 65 60
99 100 100 90 58 49 66 60 54 46 35 86 97 97 100 99 98 97 99 94 97 99 99 100 100 92 90 92 88 88 91 94 96 98 98 95 97 98 92 84 78 72 68 70
100 85 99 85 67 58 56 57 28 20 17 22 73 92 100 99 96 98 98 98 98 98 97 98 98 99 100 94 91 93 90 89 92 91 98 96 92 93 93 95 90 71 66 69
95 65 70 73 54 42 49 55 34 15 11 11 15 75 97 96 99 98 98 99 99 100 98 98 98 98 99 98 97 100 99 93 98 96 97 94 90 98 97 94 99 96 98 90
79 54 48 52 40 33 49 59 38 15 10 8 17 86 88 97 100 98 100 99 94 93 98 96 91 88 88 84 95 99 100 98 90 92 93 99 99 98 94 96 96 98 98 99
68 55 38 33 28 30 50 60 41 13 10 13 22 36 54 97 100 100 100 100 100 100 100 100 98 98 99 98 98 98 98 99 98 98 98 99 98 100 100 100 100 100 100 96
51 31 25 26 26 50 60 58 13 8 11 71 89 55 98 100 100 100 100 100 100 100 100 100 100 99 100 100 100 100 99 100 99 98 96 97 97 98 99 95 89 90 77 64
24 37 98 95 49 34 28 18 10 7 14 100 100 100 100 97 98 100 100 100 100 100 100 100 100 100 100 99 99 99 98 96 93 88 85 90 87 79 70 44 35 45 47 47
85 100 100 100 98 90 69 51 34 16 10 68 100 100 100 100 100 100 100 100 100 100 100 100 100 100 99 89 92 94 90 79 66 57 48 42 40 32 26 24 22 22 24 27
100 100 100 100 100 100 97 77 76 68 30 23 84 100 100 100 100 100 100 100 100 100 99 100 99 98 100 100 100 97 89 68 48 40 36 33 29 27 24 22 22 20 18 18
100 100 96 100 100 100 96 85 94 93 90 84 69 70 100 100 100 100 100 100 96 98 100 99 90 77 67 64 63 61 56 48 43 38 33 29 28 26 25 24 23 23 21 21
99 100 92 86 77 92 100 100 100 100 92 83 74 66 69 59 62 88 96 100 99 97 92 88 86 81 73 63 53 44 40 37 35 33 29 30 32 31 30 28 26 24 22 23
100 100 100 100 100 100 100 98 88 76 72 66 62 59 58 54 66 78 83 78 77 81 72 63 56 54 58 53 48 46 44 40 41 42 47 48 44 41 38 34 31 34 36 40
70 79 80 80 68 61 69 79 73 69 66 61 58 56 55 57 61 65 64 66 65 62 66 72 70 61 55 54 50 54 57 54 53 51 52 51 47 49 50 53 49 52 53 49
83 86 76 67 69 73 72 61 48 47 46 45 45 50 49 45 43 42 40 43 45 51 56 62 68 64 62 62 65 64 61 72 74 71 74 77 74 74 71 66 62 55 49 42
56 54 51 51 59 58 53 52 52 50 46 39 46 50 51 55 51 48 48 44 43 48 53 56 59 64 71 74 76 81 83 82 82 84 84 82 82 81 77 70 62 58 56 57
55 75 84 81 82 82 81 80 84 85 77 68 66 63 63 67 71 75 77 77 75 76 77 79 81 82 84 88 91 90 89 89 87 85 84 85 87 89 87 82 80 79 79 78
91 91 86 73 60 56 55 53 51 48 46 46 46 49 53 54 52 51 52 56 62 65 64 61 59 58 58 62 72 81 86 89 89 89 92 95 94 88 78 74 74 72 70 67
77 61 54 50 48 46 46 46 48 52 64 76 81 82 82 82 84 87 89 88 89 90 90 90 90 91 93 94 94 93 93 93 93 92 90 85 82 81 80 77 72 67 61 55
46 51 62 72 79 85 87 89 91 92 94 95 96 97 98 98 99 99 99 99 97 95 94 94 94 94 94 94 94 94 92 91 89 86 84 82 80 75 67 59 51 43 35 27
92 85 65 54 51 51 52 53 52 53 53 53 54 57 60 63 66 68 70 74 78 83 89 93 94 92 90 87 84 81 78 74 70 64 58 51 43 34 26 20 15 14 13 13
53 56 57 58 59 61 65 68 73 79 82 83 84 86 90 92 93 92 92 92 92 90 88 85 79 73 66 59 50 42 34 26 21 17 15 14 13 13 12 11 10 10 11 12
54 53 53 55 58 64 69 71 70 66 62 57 54 51 49 46 43 40 36 33 30 27 24 21 19 18 17 16 16 14 13 12 11 10 10 10 10 11 12 15 17 20 22 23
55 57 60 63 70 72 69 58 42 32 28 27 26 26 26 25 24 23 22 21 19 18 16 15 14 13 13 12 12 12 12 12 12 13 14 16 18 21 23 24 26 27 28 30

GFSNGP_500_rhum_084.txt.gz
RH
39 80 100 99 99 100 94 66 61 81 99 83 80 88 100 98 96 100 94 88 92 79 54 35 60 85 98 96 98 96 77 74 99 90 99 90 83 71 52 34 30 31 28 28
68 34 99 100 100 98 89 100 82 100 98 82 68 79 100 100 83 91 98 98 93 100 96 43 64 100 96 92 100 97 97 76 92 99 98 99 100 90 90 76 68 60 48 44
40 65 28 78 69 71 100 99 100 97 80 69 72 62 84 100 99 91 90 100 96 96 98 79 55 98 93 96 90 99 96 82 87 99 95 97 98 94 100 95 87 83 79 88
60 100 50 24 69 66 86 98 91 87 62 61 76 71 68 90 98 91 83 85 99 97 98 95 66 77 82 95 99 99 96 83 85 91 90 96 96 91 96 97 96 95 93 92
100 100 84 100 96 56 100 92 66 77 64 63 63 63 40 52 76 86 79 96 98 99 94 97 92 94 83 100 95 96 99 95 86 96 80 86 91 95 94 94 98 87 94 96
100 100 100 100 73 43 71 93 100 99 83 71 71 64 56 36 39 79 68 87 95 99 97 100 98 92 75 87 98 99 90 98 88 85 69 63 74 85 96 95 96 91 94 84
99 100 100 100 74 76 67 72 96 80 65 57 51 49 47 43 28 35 64 82 79 97 98 98 95 97 78 98 85 98 84 82 96 97 72 96 65 62 83 95 87 92 98 97
100 100 100 99 100 94 77 65 51 47 45 47 44 48 39 23 24 20 50 83 97 94 95 98 97 98 99 99 99 89 98 100 97 95 83 91 96 97 97 71 87 96 97 99
100 99 88 95 88 80 70 54 36 31 33 33 36 43 36 18 11 13 34 48 87 99 96 93 99 98 98 100 98 99 99 100 98 98 97 99 99 99 92 87 89 93 93 100
100 100 99 80 67 48 46 49 51 26 28 32 37 34 42 16 10 18 59 43 68 99 99 99 100 99 99 98 99 99 98 98 98 99 99 98 98 98 97 98 98 98 99 99
97 97 96 56 43 38 33 31 28 33 23 30 51 44 24 35 58 41 78 99 78 96 98 100 99 100 100 100 99 98 97 98 97 98 96 94 96 96 96 97 97 98 98 98
76 75 52 37 44 33 32 60 58 35 22 39 37 14 99 100 100 99 72 100 95 98 100 100 100 99 97 98 98 100 100 100 96 94 98 99 100 99 99 100 99 98 98 97
58 59 42 32 94 86 81 86 95 84 68 71 67 33 97 100 100 100 100 100 100 100 100 100 100 98 98 98 100 100 100 100 100 100 97 100 100 100 100 98 93 84 70 62
36 47 38 66 100 99 74 92 96 100 100 100 100 76 58 95 100 100 100 100 100 100 100 100 100 100 100 100 91 95 98 98 82 74 72 62 59 58 57 56 58 54 50 46
33 50 96 100 100 97 98 100 100 100 100 100 100 100 100 98 78 65 73 82 86 94 99 100 100 100 100 100 100 100 100 100 72 57 62 56 57 58 56 54 55 51 48 46
100 100 99 100 100 100 100 100 100 100 100 100 100 100 100 94 76 70 69 66 64 64 72 82 82 95 100 100 100 99 96 77 75 84 78 75 74 67 59 56 52 48 45 41
98 100 100 100 100 98 72 58 56 56 60 73 81 81 76 68 64 64 62 59 57 55 54 55 60 68 69 75 80 78 78 81 83 78 72 69 65 65 66 66 65 65 64 63
97 95 77 58 52 46 40 37 35 36 36 34 35 41 45 39 35 35 33 29 29 29 30 32 37 40 43 45 46 44 44 46 49 51 52 53 54 53 54 50 48 48 45 40
65 54 44 32 26 24 21 20 21 28 32 33 37 42 42 41 40 38 35 35 32 27 25 24 25 26 28 31 34 39 42 43 45 47 45 49 49 50 52 55 55 57 61 67
28 27 26 24 22 21 32 45 57 56 56 54 50 40 35 33 33 34 37 40 42 44 45 48 52 51 47 44 42 49 56 58 58 59 59 61 59 60 57 56 54 54 56 58
26 26 25 26 34 58 54 45 44 45 48 48 46 44 46 49 50 50 46 52 46 51 54 64 60 64 57 56 58 58 57 61 63 64 65 65 63 64 70 77 76 75 78 83
23 32 41 46 52 60 62 60 54 51 49 49 50 52 54 56 58 60 62 64 64 62 64 72 77 88 96 99 100 100 100 99 99 99 98 97 95 93 91 90 89 87 87 85
49 52 50 45 41 39 39 39 39 39 40 42 44 45 47 48 48 48 50 50 52 54 59 64 68 70 72 72 72 73 74 75 76 77 79 82 83 85 84 84 81 77 73 67
38 37 36 35 35 36 36 36 37 38 41 45 48 52 54 55 55 57 55 55 55 54 53 54 55 56 58 61 63 65 66 67 66 66 66 63 60 55 50 44 35 29 26 22
41 42 39 38 39 38 38 37 37 44 52 58 60 54 46 41 36 33 30 29 28 26 26 26 25 25 24 24 24 24 25 25 25 24 24 24 23 22 21 20 18 16 14 12
50 46 43 43 42 41 41 41 40 45 53 50 42 36 33 30 29 27 25 23 21 19 18 17 16 16 16 16 16 16 16 16 16 16 15 15 14 14 13 12 12 12 13 13
54 52 50 50 50 48 46 43 42 42 40 35 31 28 26 24 22 19 16 15 14 14 14 14 14 15 15 15 16 17 17 17 16 16 16 16 16 16 16 16 16 16 17 19

GFSNGP_500_rhum_087.txt.gz
RH
38 21 86 100 90 100 63 73 92 97 71 62 90 99 100 99 100 99 95 92 85 72 72 72 76 84 94 92 89 95 93 98 96 100 100 99 98 80 79 61 37 28 29 29
92 36 67 99 85 83 100 98 91 58 100 85 63 99 99 100 99 100 98 89 87 75 84 77 70 75 79 95 100 100 95 96 92 98 98 99 97 97 77 80 78 60 49 45
82 97 46 71 100 100 100 100 74 75 100 89 74 84 95 98 97 98 98 91 94 90 92 94 79 50 56 73 98 100 98 98 98 99 97 97 98 97 90 73 86 90 86 82
80 99 64 43 98 99 93 99 98 100 100 100 98 88 79 76 89 68 93 88 86 86 77 76 90 94 48 73 87 100 99 95 95 97 91 98 91 93 96 95 82 88 99 96
95 100 46 86 90 100 94 94 87 87 100 87 73 68 50 52 68 48 50 74 77 90 96 88 87 96 98 70 84 84 100 98 95 94 99 94 81 83 84 91 90 84 95 98
100 100 100 89 98 67 100 88 93 89 76 86 85 73 60 43 39 43 36 44 70 71 84 89 98 98 100 98 79 99 78 99 92 98 95 94 84 76 74 76 81 85 89 98
98 100 100 100 100 99 77 53 80 94 92 100 99 76 64 57 50 43 39 33 56 77 75 79 95 96 99 99 96 69 68 91 98 81 96 96 95 88 78 71 80 80 85 99
100 100 100 99 100 100 95 68 89 99 96 93 71 56 48 44 42 41 39 24 34 70 81 71 86 92 95 98 98 100 72 96 83 98 91 93 98 85 93 92 100 75 88 97
100 100 100 100 100 100 99 86 49 40 56 44 42 36 34 32 42 38 24 17 21 45 80 84 94 100 100 99 99 97 98 99 99 99 92 97 96 97 100 100 98 100 90 92
100 100 100 95 96 95 86 66 66 51 31 28 29 27 26 27 30 38 23 10 22 37 51 54 88 99 100 99 98 99 99 98 98 99 99 99 98 98 98 98 98 97 98 99
100 99 100 94 82 63 50 44 39 30 26 24 29 27 23 19 31 31 24 12 27 92 88 83 99 100 99 100 100 100 100 100 100 100 99 100 100 100 99 98 98 98 97 98
98 94 96 81 44 34 32 31 24 34 31 28 24 23 43 63 77 75 89 91 70 87 100 100 97 95 98 100 100 100 100 100 99 99 100 99 100 99 99 98 99 98 98 98
63 59 62 42 30 30 27 48 59 65 54 56 54 45 47 57 100 100 100 100 100 100 100 100 100 100 98 100 100 100 100 100 98 99 99 99 100 99 100 100 100 100 99 100
38 39 46 45 43 29 59 88 84 90 81 91 92 100 100 77 74 100 100 100 100 100 100 100 100 100 100 100 100 100 99 100 98 99 100 100 93 82 84 84 82 82 82 83
44 39 22 28 35 66 93 98 99 97 83 98 100 100 100 100 99 97 84 80 87 91 98 98 99 100 100 100 100 97 96 93 97 93 85 94 93 89 63 64 58 56 62 68
67 38 29 68 85 98 100 100 96 94 94 96 98 100 100 100 100 100 98 85 75 75 74 74 73 75 89 90 86 87 96 100 100 96 100 96 89 95 67 72 73 68 67 69
100 92 100 100 100 100 100 75 49 41 39 37 39 40 43 50 61 68 70 64 55 53 52 50 51 50 50 50 53 58 65 67 77 83 93 75 81 91 90 89 88 83 78 76
100 100 99 77 50 43 34 27 21 19 18 16 17 17 20 24 26 27 28 29 32 34 34 32 29 26 25 25 26 27 31 38 42 45 47 49 52 53 55 55 53 50 46 44
69 62 50 37 28 25 22 21 19 19 24 34 44 43 44 45 46 47 49 49 48 46 42 41 37 33 34 35 35 32 27 30 30 29 29 31 34 34 35 37 43 44 37 33
31 28 27 26 24 23 22 25 27 40 45 45 47 48 48 47 45 44 41 37 35 34 32 30 29 29 31 34 36 37 37 44 48 51 51 51 49 47 44 44 44 46 48 46
27 26 22 21 32 42 47 48 46 42 36 34 32 30 30 32 34 39 45 46 49 57 66 70 80 80 79 79 78 77 75 75 82 86 87 85 91 95 96 94 96 98 100 100
26 36 42 43 38 32 30 29 28 28 28 28 27 26 27 27 29 34 41 48 48 53 54 54 53 54 56 57 60 62 62 61 61 63 67 75 82 87 92 92 93 93 92 92
44 34 33 33 32 33 33 35 36 37 37 36 34 33 33 35 39 46 47 50 52 54 54 55 55 55 54 54 54 55 56 56 56 57 60 63 68 70 71 74 73 72 72 70
34 36 38 39 41 42 44 45 45 45 45 43 40 38 36 36 40 45 44 41 38 36 34 32 31 30 30 29 29 28 27 27 27 26 27 27 31 32 34 35 35 35 33 31
43 47 50 50 51 53 54 53 52 52 50 47 43 40 38 38 36 33 32 31 30 28 27 26 25 24 24 23 22 21 21 20 20 20 20 20 20 20 20 20 19 19 18 17
54 57 60 63 64 64 62 62 58 56 51 46 40 38 34 31 29 28 26 23 21 20 18 18 16 16 15 15 14 14 14 14 13 13 13 13 13 13 14 14 14 14 14 14
69 72 73 72 71 68 66 66 63 57 49 42 37 35 35 30 22 18 18 18 19 19 19 19 19 19 20 19 19 19 18 19 19 20 21 21 20 20 19 18 18 18 18 18

GFSNGP_500_rhum_090.txt.gz
RH
9 9 8 7 6 60 97 57 100 73 99 100 92 98 96 99 94 100 90 97 86 82 77 54 67 83 92 88 82 90 93 82 93 94 97 97 95 97 90 73 36 28 25 30
22 22 40 24 8 25 74 66 87 100 100 92 100 81 57 95 86 100 85 88 92 87 80 73 58 43 64 68 70 77 80 85 96 97 87 91 97 100 95 85 73 59 47 37
49 57 84 84 29 52 99 94 100 100 84 71 96 100 90 74 96 91 90 95 91 84 85 75 68 67 65 67 71 86 88 92 84 97 97 91 95 98 100 93 89 82 66 63
63 78 96 88 93 78 94 100 98 82 77 79 86 99 100 80 84 76 70 68 80 88 86 80 67 71 77 74 75 93 100 88 86 87 95 97 94 94 98 98 97 97 87 76
47 93 100 100 100 100 100 100 100 100 100 97 100 100 97 90 77 47 67 53 45 74 86 76 74 69 80 80 61 66 72 88 88 83 79 77 96 92 90 81 91 90 89 84
59 96 100 100 94 100 100 100 89 100 98 100 97 97 69 56 54 38 32 39 41 30 64 85 87 91 91 90 83 59 48 64 71 81 94 99 76 89 98 78 75 86 82 84
78 100 100 100 95 99 100 100 100 99 97 100 92 64 57 59 59 53 44 35 39 32 45 72 80 82 92 100 99 94 89 77 68 65 98 90 95 99 94 98 96 86 80 81
100 100 100 100 74 100 100 100 98 99 100 100 96 79 77 69 61 45 41 43 41 30 30 46 75 73 74 79 84 97 100 100 97 84 76 99 96 99 100 98 98 99 91 87
100 100 100 100 100 100 100 100 100 100 100 89 73 79 61 64 44 36 26 37 34 28 25 32 78 75 80 88 92 94 97 97 100 98 99 92 62 90 100 96 99 94 100 98
100 100 100 100 100 100 100 100 84 52 59 58 52 42 36 43 42 30 25 21 35 24 15 19 68 78 74 90 92 99 100 100 100 100 100 100 99 97 100 100 98 99 99 99
99 95 100 100 100 92 86 69 64 53 30 23 20 20 21 20 17 24 21 23 26 29 13 29 73 97 87 99 100 98 99 98 98 99 100 100 99 99 99 95 97 98 98 98
76 95 96 94 80 68 54 45 34 27 27 24 18 19 19 24 23 37 32 20 24 29 50 45 92 100 100 100 100 100 100 100 100 100 100 100 100 100 100 100 100 99 100 99
69 73 68 68 32 30 30 28 26 41 50 52 58 51 36 38 40 44 96 100 100 94 95 100 100 99 100 100 100 100 100 100 100 100 100 100 100 100 100 100 99 100 100 100
27 36 55 42 41 37 25 26 57 72 79 86 92 88 80 74 91 80 70 91 99 100 99 97 100 100 100 100 100 100 100 100 100 100 100 100 100 100 100 100 100 100 100 100
24 20 25 30 33 39 29 40 70 72 76 82 88 84 93 86 88 88 95 94 82 81 83 85 92 94 96 96 96 100 100 100 100 100 95 96 99 97 97 98 99 97 97 96
46 30 30 23 27 42 68 88 96 85 74 69 67 66 62 69 79 83 85 86 89 89 87 80 77 74 73 75 77 76 83 93 100 100 100 100 99 98 91 88 98 98 86 82
83 64 44 79 96 89 90 91 77 70 38 21 20 19 17 18 20 23 26 27 27 30 37 50 62 54 50 48 41 36 38 40 42 47 53 61 65 67 80 91 92 94 86 84
100 100 98 98 96 74 55 37 26 22 20 19 23 22 26 34 34 31 30 30 28 28 27 28 32 31 31 31 30 29 29 28 26 26 25 27 30 33 37 41 45 48 50 50
100 99 81 49 33 28 26 24 22 22 29 32 39 41 41 41 40 39 38 39 40 41 40 40 38 37 36 37 38 40 41 39 36 32 32 35 35 35 35 36 39 40 41 46
37 31 30 28 26 25 24 33 39 39 33 28 25 25 25 25 24 24 24 23 23 22 22 23 27 34 43 50 56 60 62 59 51 43 39 40 42 46 47 47 48 49 47 49
31 25 24 26 38 42 36 27 26 27 30 33 35 37 38 37 35 34 33 32 31 30 28 29 29 31 36 41 45 49 52 53 53 56 62 66 70 72 74 78 80 81 84 85
32 41 44 36 31 29 30 31 33 36 41 44 46 46 45 44 42 40 38 35 33 33 34 35 36 40 46 50 54 56 57 57 57 57 55 53 53 53 54 57 60 63 64 65
45 37 32 33 33 34 37 40 45 50 53 56 56 54 51 48 45 41 36 34 33 34 34 34 34 34 36 36 36 35 35 34 35 35 36 37 38 40 42 44 45 46 47 48
40 36 36 39 43 47 52 57 63 67 66 64 60 55 54 52 47 42 37 34 34 33 32 32 30 29 27 26 26 27 28 28 28 27 27 26 26 26 26 26 25 25 25 25
41 43 48 52 59 67 70 70 69 66 63 61 59 59 58 52 45 41 37 35 33 29 22 17 16 16 16 17 17 17 18 18 18 17 17 16 16 15 15 15 15 15 14 14
56 62 71 73 70 68 66 68 68 66 66 69 70 68 58 51 46 39 35 33 28 21 18 19 19 20 20 20 20 20 20 19 19 18 18 18 17 17 17 17 17 17 16 16
85 73 67 63 59 56 57 59 63 65 65 66 66 59 50 43 37 35 32 27 23 22 21 21 21 21 22 22 22 22 22 23 24 25 25 25 26 26 26 27 26 25 24 23

GFSNGP_500_rhum_093.txt.gz
RH
4 6 6 6 6 8 8 6 5 27 38 31 57 97 100 93 98 98 96 100 100 98 92 70 55 56 47 83 92 96 98 97 96 96 98 62 78 98 93 89 65 37 24 26
9 10 16 21 15 11 7 7 6 6 26 42 62 98 100 100 100 100 100 100 100 100 98 82 75 68 65 83 89 94 98 98 95 96 96 78 84 93 100 92 74 39 21 23
14 36 73 55 33 57 66 11 7 7 22 77 74 95 94 100 100 100 100 97 100 100 99 94 75 71 62 55 61 66 87 95 96 99 97 89 85 95 100 95 91 93 67 44
31 47 58 55 78 100 100 39 24 16 24 52 100 98 94 97 100 100 100 77 75 78 87 98 86 86 78 70 57 44 48 96 62 94 98 96 98 98 97 97 98 96 95 86
82 84 55 90 90 100 100 97 46 50 30 64 78 100 95 92 96 100 79 62 65 49 50 68 85 78 81 77 70 63 60 57 62 99 93 100 93 88 92 98 99 100 100 98
92 65 69 68 92 98 100 100 100 90 98 100 100 100 99 96 73 55 52 22 28 44 44 32 49 74 77 72 77 88 77 66 61 96 98 71 72 75 81 97 98 100 100 94
67 91 95 92 84 97 100 92 100 100 100 98 100 100 87 59 44 45 37 29 28 24 32 36 32 54 67 78 87 98 94 84 67 58 70 96 65 97 100 90 92 92 88 82
100 100 98 95 100 100 100 100 100 99 100 100 98 98 96 74 64 53 48 43 40 38 34 31 32 33 55 70 77 84 91 100 98 84 75 71 63 56 71 94 94 98 97 98
100 100 100 100 100 97 100 100 98 100 100 96 96 81 79 69 69 65 54 47 28 31 36 36 28 27 32 53 73 79 85 92 100 98 100 100 97 90 90 97 95 99 99 98
100 100 100 100 100 100 100 100 100 100 94 69 62 54 53 47 42 44 47 46 42 33 19 26 32 26 22 36 58 74 82 87 84 82 86 97 93 99 98 97 99 92 99 91
100 100 100 100 100 100 100 100 89 77 71 58 39 24 20 19 20 25 26 25 26 27 28 20 22 25 22 21 38 64 82 94 98 95 87 90 94 98 98 94 92 97 92 73
96 100 100 98 95 93 87 60 57 46 28 23 17 12 9 8 9 11 20 19 17 19 20 22 24 25 26 27 80 95 98 96 100 100 100 100 95 92 94 98 99 99 99 99
67 68 99 83 46 34 34 34 32 25 21 22 27 23 19 20 19 20 20 22 27 44 69 86 75 55 64 78 96 100 100 100 100 100 100 100 100 100 100 100 100 100 99 100
52 60 76 66 38 35 31 27 21 20 27 29 26 27 32 36 47 59 66 66 62 54 79 89 97 99 100 100 100 100 100 100 100 100 100 100 100 100 100 100 100 100 100 100
19 31 37 57 42 42 38 33 23 30 47 55 56 60 61 63 64 66 61 63 59 64 78 81 73 73 72 73 79 88 95 98 100 100 100 100 100 100 100 100 100 100 100 100
21 16 32 24 18 21 22 27 29 45 62 68 62 39 27 24 20 20 25 30 38 44 46 48 50 55 59 66 76 80 83 83 85 90 90 91 95 100 100 100 100 100 100 100
38 20 15 19 16 21 45 46 67 77 67 32 20 23 21 21 20 19 19 21 22 21 22 24 27 26 25 24 23 24 30 39 47 58 59 54 50 46 54 68 76 77 81 79
93 67 54 52 81 73 73 91 74 42 26 23 21 24 26 33 36 35 32 30 29 28 27 28 29 31 32 33 33 33 34 37 38 38 36 35 33 32 32 30 30 29 29 29
100 95 90 90 93 79 53 33 26 24 24 30 35 30 26 26 27 28 30 31 31 30 28 28 27 26 26 24 23 22 21 23 30 40 42 41 41 42 43 43 43 43 41 40
100 92 66 44 35 29 27 25 32 38 29 26 27 31 35 39 41 42 41 39 36 35 34 32 32 31 29 27 26 25 25 25 25 27 31 39 48 56 66 72 70 60 55 55
40 35 31 31 33 39 43 34 29 28 30 33 35 41 47 51 55 54 49 44 43 41 39 36 33 30 28 25 25 27 29 31 32 33 37 45 50 53 54 55 58 61 65 68
28 29 38 45 43 36 31 30 33 37 41 48 56 61 63 63 62 58 50 48 48 44 39 36 32 28 26 25 27 30 32 32 31 33 37 40 42 46 49 54 57 58 59 58
46 49 45 35 33 33 35 40 48 59 62 60 60 60 59 60 58 56 55 53 49 44 40 35 30 27 27 29 29 28 26 24 22 25 29 29 29 32 33 34 34 34 35 35
51 42 36 37 39 45 55 65 62 58 54 54 53 55 56 59 59 57 56 52 47 41 34 29 28 28 27 25 23 20 18 17 17 17 17 17 19 22 22 23 24 25 26 26
41 42 46 52 64 73 64 60 56 55 58 58 59 60 61 61 60 60 56 50 41 32 29 27 24 22 23 23 22 22 22 21 21 21 20 20 19 19 18 18 18 18 18 17
53 64 79 81 68 63 57 50 41 38 52 64 66 65 64 63 64 62 53 40 32 29 24 20 22 24 24 23 22 22 23 22 22 23 24 24 24 23 23 22 22 21 20 20
81 91 87 74 62 42 28 26 25 27 34 60 68 69 70 72 68 55 39 32 27 20 20 22 24 24 24 23 24 24 25 25 26 27 29 31 33 34 36 38 40 41 39 37